DLH446 EDDF-KDEN

Flight info

Callsign DLH446
Flight time 9h 30m
Altitude 36000
Route ULKIG4L ULKIG Y180 BITBU Y181 DEMUL M624 BUB L608 DENUT L610 HEMEL T420 TNT UL28 RODOL UM65 TENSO L603 BELOX/N0488F380 DCT GOMUP/M085F380 DCT 62N020W 65N030W 66N040W 67N050W DCT DARUB/N0492F400 DCT 6630N07000W 6430N08000W 60N090W DCT YGX/N0485F410 J89 YIV/N0480F400 Q834 OTLUR DCT KP06A DCT KD81Y DCT NYTRO AALLE4
Aircraft A359/H-SDE2E3GHIJ1J3J4J5LM1ORWXY/LB1D1

Departure

Time 2026-04-15 06:11
Airport Frankfurt Main Airport (EDDF)

Arrival

Time 2026-04-15 15:42
Airport Denver International Airport (KDEN)
Time Latitude Longitude Altitude Speed Heading
2026-04-15 05:48 50.04754 8.56390 369 ft 0 kts 340°
2026-04-15 05:59 50.04736 8.56400 349 ft 4 kts 337°
2026-04-15 05:59 50.04711 8.56418 376 ft 4 kts 331°
2026-04-15 06:00 50.04688 8.56440 362 ft 4 kts 319°
2026-04-15 06:00 50.04672 8.56471 363 ft 4 kts 296°
2026-04-15 06:00 50.04657 8.56501 369 ft 4 kts 341°
2026-04-15 06:00 50.04636 8.56500 366 ft 1 kts 25°
2026-04-15 06:01 50.04649 8.56500 368 ft 4 kts 350°
2026-04-15 06:01 50.04665 8.56474 364 ft 4 kts 297°
2026-04-15 06:01 50.04666 8.56434 362 ft 4 kts 261°
2026-04-15 06:01 50.04662 8.56412 366 ft 4 kts 264°
2026-04-15 06:02 50.04659 8.56404 367 ft 5 kts 250°
2026-04-15 06:04 50.04638 8.56310 368 ft 20 kts 250°
2026-04-15 06:04 50.04590 8.56112 369 ft 19 kts 250°
2026-04-15 06:05 50.04532 8.55961 369 ft 16 kts 210°
2026-04-15 06:05 50.04425 8.55911 370 ft 16 kts 187°
2026-04-15 06:05 50.04326 8.55940 367 ft 11 kts 162°
2026-04-15 06:05 50.04251 8.55945 366 ft 11 kts 219°
2026-04-15 06:06 50.04214 8.55828 364 ft 13 kts 249°
2026-04-15 06:06 50.04179 8.55686 367 ft 15 kts 250°
2026-04-15 06:06 50.04141 8.55526 365 ft 16 kts 249°
2026-04-15 06:06 50.04100 8.55356 362 ft 17 kts 250°
2026-04-15 06:07 50.04058 8.55185 366 ft 17 kts 249°
2026-04-15 06:07 50.04015 8.55007 367 ft 18 kts 250°
2026-04-15 06:07 50.03970 8.54814 366 ft 20 kts 250°
2026-04-15 06:07 50.03919 8.54600 360 ft 22 kts 250°
2026-04-15 06:08 50.03860 8.54375 360 ft 23 kts 239°
2026-04-15 06:08 50.03783 8.54145 361 ft 24 kts 248°
2026-04-15 06:08 50.03722 8.53895 354 ft 25 kts 250°
2026-04-15 06:08 50.03659 8.53635 358 ft 26 kts 247°
2026-04-15 06:09 50.03592 8.53367 355 ft 27 kts 250°
2026-04-15 06:09 50.03529 8.53105 354 ft 25 kts 250°
2026-04-15 06:09 50.03469 8.52870 352 ft 16 kts 247°
2026-04-15 06:09 50.03431 8.52706 352 ft 15 kts 252°
2026-04-15 06:10 50.03385 8.52594 351 ft 12 kts 196°
2026-04-15 06:10 50.03368 8.52593 351 ft 0 kts 180°
2026-04-15 06:10 50.03358 8.52593 351 ft 10 kts 179°
2026-04-15 06:10 50.03037 8.52599 351 ft 84 kts 179°
2026-04-15 06:11 50.02214 8.52610 337 ft 155 kts 179°
2026-04-15 06:11 50.00977 8.52631 809 ft 181 kts 180°
2026-04-15 06:11 49.99720 8.52650 1860 ft 185 kts 176°
2026-04-15 06:11 49.98329 8.52745 2447 ft 212 kts 175°
2026-04-15 06:12 49.96828 8.52852 2999 ft 219 kts 176°
2026-04-15 06:12 49.95280 8.52958 3542 ft 225 kts 176°
2026-04-15 06:12 49.93701 8.53053 4091 ft 230 kts 177°
2026-04-15 06:12 49.92053 8.52694 4335 ft 251 kts 198°
2026-04-15 06:13 49.90581 8.51128 4696 ft 267 kts 232°
2026-04-15 06:13 49.89920 8.48454 5251 ft 271 kts 268°
2026-04-15 06:13 49.90156 8.45575 5962 ft 270 kts 287°
2026-04-15 06:13 49.90828 8.42853 6709 ft 270 kts 295°
2026-04-15 06:14 49.91639 8.40212 7411 ft 272 kts 296°
2026-04-15 06:14 49.92466 8.37556 8118 ft 275 kts 296°
2026-04-15 06:14 49.93294 8.34900 8799 ft 278 kts 296°
2026-04-15 06:14 49.94137 8.32175 9519 ft 281 kts 296°
2026-04-15 06:15 49.94984 8.29421 10214 ft 284 kts 295°
2026-04-15 06:15 49.95847 8.26601 10692 ft 297 kts 295°
2026-04-15 06:15 49.96758 8.23613 10947 ft 315 kts 295°
2026-04-15 06:15 49.97723 8.20450 11210 ft 333 kts 295°
2026-04-15 06:16 49.98736 8.17119 11495 ft 348 kts 295°
2026-04-15 06:16 49.99785 8.13665 12020 ft 355 kts 295°
2026-04-15 06:16 50.00842 8.10178 12670 ft 358 kts 295°
2026-04-15 06:16 50.01906 8.06665 13328 ft 361 kts 295°
2026-04-15 06:17 50.02983 8.03102 13992 ft 364 kts 295°
2026-04-15 06:17 50.04064 7.99519 14577 ft 367 kts 295°
2026-04-15 06:17 50.05140 7.95951 15121 ft 370 kts 295°
2026-04-15 06:17 50.06238 7.92302 15708 ft 373 kts 296°
2026-04-15 06:18 50.07342 7.88632 16282 ft 376 kts 296°
2026-04-15 06:18 50.08454 7.84927 16843 ft 378 kts 296°
2026-04-15 06:18 50.09573 7.81196 17407 ft 381 kts 296°
2026-04-15 06:18 50.10701 7.77426 17976 ft 384 kts 296°
2026-04-15 06:19 50.11835 7.73633 18540 ft 388 kts 296°
2026-04-15 06:19 50.12977 7.69807 19004 ft 391 kts 296°
2026-04-15 06:19 50.14128 7.65945 19530 ft 394 kts 296°
2026-04-15 06:19 50.15285 7.62052 20032 ft 397 kts 296°
2026-04-15 06:20 50.16433 7.58188 20553 ft 399 kts 296°
2026-04-15 06:20 50.17604 7.54236 21075 ft 402 kts 296°
2026-04-15 06:20 50.18781 7.50257 21619 ft 405 kts 296°
2026-04-15 06:20 50.19964 7.46254 22105 ft 407 kts 296°
2026-04-15 06:21 50.21155 7.42217 22603 ft 411 kts 296°
2026-04-15 06:21 50.22355 7.38142 23094 ft 414 kts 296°
2026-04-15 06:21 50.23561 7.34040 23601 ft 416 kts 296°
2026-04-15 06:21 50.24769 7.29922 24088 ft 418 kts 296°
2026-04-15 06:22 50.25983 7.25776 24534 ft 420 kts 296°
2026-04-15 06:22 50.27199 7.21619 24982 ft 421 kts 296°
2026-04-15 06:22 50.28414 7.17455 25437 ft 422 kts 296°
2026-04-15 06:22 50.29619 7.13319 25881 ft 423 kts 297°
2026-04-15 06:23 50.30858 7.09062 26328 ft 425 kts 297°
2026-04-15 06:23 50.32066 7.04904 26766 ft 426 kts 297°
2026-04-15 06:23 50.33294 7.00665 27192 ft 428 kts 297°
2026-04-15 06:23 50.34525 6.96412 27623 ft 429 kts 297°
2026-04-15 06:24 50.35758 6.92147 28035 ft 431 kts 297°
2026-04-15 06:24 50.36995 6.87858 28467 ft 432 kts 296°
2026-04-15 06:24 50.38235 6.83551 28859 ft 434 kts 297°
2026-04-15 06:24 50.39476 6.79232 29247 ft 436 kts 296°
2026-04-15 06:25 50.40720 6.74893 29620 ft 437 kts 296°
2026-04-15 06:25 50.41968 6.70534 29989 ft 439 kts 296°
2026-04-15 06:25 50.43205 6.66206 30337 ft 441 kts 296°
2026-04-15 06:25 50.44461 6.61803 30623 ft 442 kts 297°
2026-04-15 06:26 50.45716 6.57393 30924 ft 444 kts 297°
2026-04-15 06:26 50.46980 6.52944 31222 ft 445 kts 297°
2026-04-15 06:26 50.48241 6.48497 31507 ft 446 kts 296°
2026-04-15 06:26 50.49506 6.44030 31746 ft 448 kts 296°
2026-04-15 06:27 50.50775 6.39539 31987 ft 450 kts 296°
2026-04-15 06:27 50.52043 6.35041 32245 ft 451 kts 296°
2026-04-15 06:27 50.53313 6.30528 32497 ft 452 kts 296°
2026-04-15 06:27 50.54586 6.25998 32710 ft 454 kts 296°
2026-04-15 06:28 50.55859 6.21455 33039 ft 453 kts 296°
2026-04-15 06:28 50.57124 6.16933 33406 ft 451 kts 296°
2026-04-15 06:28 50.58367 6.12482 33756 ft 449 kts 296°
2026-04-15 06:28 50.59620 6.07985 34093 ft 448 kts 296°
2026-04-15 06:29 50.60869 6.03498 34362 ft 447 kts 296°
2026-04-15 06:29 50.62118 5.99004 34539 ft 448 kts 296°
2026-04-15 06:29 50.63364 5.94510 34762 ft 447 kts 296°
2026-04-15 06:29 50.64605 5.90024 35002 ft 446 kts 296°
2026-04-15 06:30 50.65844 5.85537 35214 ft 445 kts 296°
2026-04-15 06:30 50.67077 5.81062 35452 ft 445 kts 296°
2026-04-15 06:30 50.68307 5.76590 35680 ft 444 kts 296°
2026-04-15 06:30 50.69533 5.72126 35872 ft 443 kts 296°
2026-04-15 06:31 50.70755 5.67664 36078 ft 443 kts 296°
2026-04-15 06:31 50.71976 5.63203 36198 ft 444 kts 296°
2026-04-15 06:31 50.73188 5.58767 36223 ft 447 kts 296°
2026-04-15 06:32 50.75658 5.49698 36239 ft 449 kts 295°
2026-04-15 06:32 50.77704 5.42149 36234 ft 448 kts 295°
2026-04-15 06:33 50.80152 5.33085 36231 ft 448 kts 295°
2026-04-15 06:33 50.82596 5.24008 36227 ft 448 kts 295°
2026-04-15 06:34 50.85028 5.14935 36216 ft 448 kts 295°
2026-04-15 06:34 50.87443 5.05892 36221 ft 448 kts 294°
2026-04-15 06:35 50.89865 4.96786 36215 ft 448 kts 294°
2026-04-15 06:35 50.92282 4.87667 36216 ft 449 kts 294°
2026-04-15 06:36 50.94689 4.78545 36213 ft 449 kts 294°
2026-04-15 06:36 50.97094 4.69399 36209 ft 449 kts 294°
2026-04-15 06:37 50.99474 4.60310 36210 ft 449 kts 294°
2026-04-15 06:37 51.01876 4.51097 36212 ft 449 kts 293°
2026-04-15 06:38 51.04243 4.41979 36212 ft 449 kts 293°
2026-04-15 06:38 51.06615 4.32809 36211 ft 449 kts 293°
2026-04-15 06:39 51.08987 4.23601 36206 ft 449 kts 293°
2026-04-15 06:39 51.11344 4.14413 36202 ft 449 kts 293°
2026-04-15 06:40 51.13700 4.05193 36205 ft 449 kts 293°
2026-04-15 06:40 51.16032 3.96031 36193 ft 449 kts 293°
2026-04-15 06:41 51.18369 3.86807 36193 ft 449 kts 293°
2026-04-15 06:41 51.20701 3.77569 36178 ft 449 kts 292°
2026-04-15 06:42 51.23086 3.68340 36187 ft 450 kts 296°
2026-04-15 06:42 51.26318 3.59799 36180 ft 450 kts 304°
2026-04-15 06:43 51.29921 3.51674 36184 ft 450 kts 305°
2026-04-15 06:43 51.33602 3.43578 36177 ft 450 kts 305°
2026-04-15 06:44 51.37261 3.35456 36179 ft 450 kts 305°
2026-04-15 06:44 51.40901 3.27290 36172 ft 451 kts 304°
2026-04-15 06:45 51.44534 3.19097 36168 ft 451 kts 304°
2026-04-15 06:45 51.48142 3.10935 36170 ft 451 kts 304°
2026-04-15 06:46 51.51769 3.02707 36167 ft 451 kts 304°
2026-04-15 06:46 51.55390 2.94468 36167 ft 451 kts 304°
2026-04-15 06:47 51.59000 2.86229 36158 ft 451 kts 303°
2026-04-15 06:47 51.62618 2.77940 36160 ft 452 kts 303°
2026-04-15 06:48 51.66215 2.69676 36152 ft 453 kts 303°
2026-04-15 06:48 51.69825 2.61356 36151 ft 453 kts 303°
2026-04-15 06:49 51.73425 2.53032 36150 ft 453 kts 303°
2026-04-15 06:49 51.77025 2.44678 36146 ft 453 kts 303°
2026-04-15 06:50 51.82400 2.32160 36136 ft 454 kts 302°
2026-04-15 06:50 51.85995 2.23750 36133 ft 454 kts 302°
2026-04-15 06:51 51.89593 2.15308 36136 ft 454 kts 302°
2026-04-15 06:51 51.93177 2.06873 36129 ft 454 kts 302°
2026-04-15 06:52 51.96751 1.98431 36128 ft 454 kts 302°
2026-04-15 06:52 52.00325 1.89962 36121 ft 456 kts 301°
2026-04-15 06:53 52.03916 1.81423 36114 ft 457 kts 301°
2026-04-15 06:53 52.07471 1.72943 36125 ft 457 kts 301°
2026-04-15 06:54 52.11048 1.64382 36123 ft 457 kts 301°
2026-04-15 06:54 52.14612 1.55824 36096 ft 457 kts 301°
2026-04-15 06:55 52.18177 1.47236 36105 ft 457 kts 300°
2026-04-15 06:55 52.21732 1.38640 36095 ft 460 kts 300°
2026-04-15 06:56 52.25307 1.29965 36091 ft 460 kts 300°
2026-04-15 06:56 52.28882 1.21268 36092 ft 460 kts 300°
2026-04-15 06:57 52.32445 1.12568 36079 ft 460 kts 300°
2026-04-15 06:57 52.35974 1.03920 36082 ft 460 kts 300°
2026-04-15 06:58 52.39523 0.95195 36085 ft 461 kts 299°
2026-04-15 06:58 52.43077 0.86420 36063 ft 463 kts 299°
2026-04-15 06:59 52.46635 0.77611 36057 ft 463 kts 299°
2026-04-15 06:59 52.50187 0.68790 36055 ft 463 kts 298°
2026-04-15 07:00 52.53729 0.59960 36048 ft 463 kts 298°
2026-04-15 07:00 52.57265 0.51116 36047 ft 462 kts 298°
2026-04-15 07:01 52.60800 0.42238 36048 ft 466 kts 298°
2026-04-15 07:01 52.64326 0.33352 36045 ft 467 kts 298°
2026-04-15 07:02 52.67878 0.24376 36039 ft 467 kts 298°
2026-04-15 07:02 52.71420 0.15391 36030 ft 467 kts 298°
2026-04-15 07:03 52.74955 0.06392 36018 ft 467 kts 297°
2026-04-15 07:03 52.78486 -0.02630 36021 ft 467 kts 297°
2026-04-15 07:04 52.81997 -0.11639 36002 ft 471 kts 297°
2026-04-15 07:04 52.85543 -0.20764 36003 ft 471 kts 297°
2026-04-15 07:05 52.89087 -0.29914 35995 ft 471 kts 297°
2026-04-15 07:05 52.92618 -0.39064 35992 ft 471 kts 297°
2026-04-15 07:06 52.96122 -0.48178 35992 ft 471 kts 296°
2026-04-15 07:06 52.99641 -0.57366 35992 ft 471 kts 296°
2026-04-15 07:07 53.03146 -0.66549 36067 ft 470 kts 296°
2026-04-15 07:07 53.04889 -0.71127 36368 ft 467 kts 296°
2026-04-15 07:07 53.06620 -0.75677 36658 ft 464 kts 296°
2026-04-15 07:08 53.08338 -0.80204 36890 ft 462 kts 296°
2026-04-15 07:08 53.10048 -0.84723 37080 ft 461 kts 296°
2026-04-15 07:08 53.11752 -0.89238 37249 ft 460 kts 296°
2026-04-15 07:08 53.13438 -0.93710 37410 ft 460 kts 296°
2026-04-15 07:09 53.15133 -0.98217 37568 ft 459 kts 295°
2026-04-15 07:09 53.16826 -1.02723 37758 ft 459 kts 295°
2026-04-15 07:09 53.20225 -1.11805 37771 ft 463 kts 295°
2026-04-15 07:10 53.21930 -1.16369 37924 ft 463 kts 295°
2026-04-15 07:10 53.23633 -1.20932 37979 ft 464 kts 295°
2026-04-15 07:10 53.27039 -1.30090 37973 ft 468 kts 295°
2026-04-15 07:11 53.30469 -1.39336 37971 ft 467 kts 295°
2026-04-15 07:11 53.33890 -1.48592 37970 ft 467 kts 294°
2026-04-15 07:12 53.37304 -1.57870 37973 ft 468 kts 294°
2026-04-15 07:12 53.40728 -1.67221 37954 ft 473 kts 294°
2026-04-15 07:13 53.44170 -1.76643 37950 ft 473 kts 294°
2026-04-15 07:13 53.47577 -1.85995 37948 ft 473 kts 294°
2026-04-15 07:14 53.50998 -1.95426 37950 ft 473 kts 294°
2026-04-15 07:14 53.54413 -2.04888 37944 ft 473 kts 293°
2026-04-15 07:15 53.57830 -2.14387 37942 ft 476 kts 293°
2026-04-15 07:15 53.60853 -2.24245 37940 ft 471 kts 285°
2026-04-15 07:16 53.63295 -2.34457 37939 ft 469 kts 283°
2026-04-15 07:16 53.65636 -2.44713 37935 ft 468 kts 283°
2026-04-15 07:17 53.67940 -2.54907 37924 ft 468 kts 283°
2026-04-15 07:17 53.70264 -2.65188 37928 ft 469 kts 283°
2026-04-15 07:18 53.72599 -2.75555 37910 ft 475 kts 283°
2026-04-15 07:18 53.74946 -2.86004 37883 ft 475 kts 283°
2026-04-15 07:19 53.77285 -2.96455 37884 ft 475 kts 283°
2026-04-15 07:19 53.79613 -3.06921 37884 ft 475 kts 283°
2026-04-15 07:20 53.81915 -3.17330 37901 ft 476 kts 282°
2026-04-15 07:20 53.84230 -3.27859 37886 ft 478 kts 282°
2026-04-15 07:21 53.86544 -3.38427 37884 ft 478 kts 282°
2026-04-15 07:21 53.89340 -3.48763 37887 ft 491 kts 295°
2026-04-15 07:22 53.93661 -3.57959 37872 ft 503 kts 304°
2026-04-15 07:22 53.98385 -3.66711 37877 ft 506 kts 306°
2026-04-15 07:23 54.03195 -3.75486 37868 ft 508 kts 306°
2026-04-15 07:23 54.07193 -3.82849 37858 ft 509 kts 305°
2026-04-15 07:24 54.11980 -3.91748 37855 ft 509 kts 305°
2026-04-15 07:24 54.16750 -4.00668 37855 ft 509 kts 305°
2026-04-15 07:25 54.21527 -4.09641 37827 ft 508 kts 306°
2026-04-15 07:25 54.26274 -4.18585 37829 ft 508 kts 305°
2026-04-15 07:26 54.31023 -4.27566 37847 ft 508 kts 305°
2026-04-15 07:26 54.35727 -4.36497 37799 ft 509 kts 305°
2026-04-15 07:27 54.40466 -4.45527 37803 ft 509 kts 305°
2026-04-15 07:27 54.45204 -4.54587 37789 ft 509 kts 305°
2026-04-15 07:28 54.49929 -4.63654 37795 ft 508 kts 305°
2026-04-15 07:28 54.54656 -4.72762 37774 ft 508 kts 305°
2026-04-15 07:29 54.59364 -4.81868 37769 ft 508 kts 305°
2026-04-15 07:29 54.64041 -4.90951 37776 ft 511 kts 305°
2026-04-15 07:30 54.68775 -5.00181 37762 ft 513 kts 305°
2026-04-15 07:30 54.73511 -5.09440 37763 ft 513 kts 305°
2026-04-15 07:31 54.78240 -5.18722 37750 ft 513 kts 305°
2026-04-15 07:31 54.82956 -5.28017 37749 ft 513 kts 305°
2026-04-15 07:32 54.87667 -5.37339 37746 ft 513 kts 305°
2026-04-15 07:32 54.92334 -5.46609 37774 ft 513 kts 305°
2026-04-15 07:33 54.97035 -5.55989 37729 ft 517 kts 305°
2026-04-15 07:33 55.01778 -5.65483 37729 ft 518 kts 305°
2026-04-15 07:34 55.06507 -5.74982 37724 ft 518 kts 305°
2026-04-15 07:34 55.11221 -5.84489 37721 ft 518 kts 305°
2026-04-15 07:35 55.15934 -5.94035 37705 ft 519 kts 305°
2026-04-15 07:35 55.20641 -6.03611 37704 ft 519 kts 305°
2026-04-15 07:36 55.25313 -6.13150 37703 ft 519 kts 305°
2026-04-15 07:36 55.30015 -6.22788 37693 ft 519 kts 304°
2026-04-15 07:37 55.34697 -6.32424 37689 ft 519 kts 304°
2026-04-15 07:37 55.39378 -6.42093 37688 ft 519 kts 304°
2026-04-15 07:38 55.44041 -6.51767 37673 ft 515 kts 304°
2026-04-15 07:38 55.48612 -6.61268 37675 ft 502 kts 304°
2026-04-15 07:39 55.53082 -6.70621 37704 ft 501 kts 304°
2026-04-15 07:39 55.57580 -6.80080 37655 ft 506 kts 304°
2026-04-15 07:40 55.62126 -6.89671 37655 ft 512 kts 304°
2026-04-15 07:40 55.66719 -6.99387 37643 ft 517 kts 304°
2026-04-15 07:41 55.71354 -7.09228 37642 ft 522 kts 304°
2026-04-15 07:41 55.76014 -7.19160 37640 ft 523 kts 304°
2026-04-15 07:42 55.80667 -7.29118 37627 ft 523 kts 304°
2026-04-15 07:42 55.85300 -7.39079 37643 ft 523 kts 304°
2026-04-15 07:43 55.89919 -7.49056 37620 ft 525 kts 304°
2026-04-15 07:43 55.94560 -7.59120 37623 ft 525 kts 304°
2026-04-15 07:44 55.99192 -7.69203 37623 ft 525 kts 304°
2026-04-15 07:44 56.03815 -7.79311 37616 ft 525 kts 304°
2026-04-15 07:45 56.08432 -7.89450 37602 ft 525 kts 304°
2026-04-15 07:45 56.13047 -7.99625 37685 ft 525 kts 304°
2026-04-15 07:46 56.17651 -8.09819 37611 ft 527 kts 303°
2026-04-15 07:46 56.22257 -8.20064 37609 ft 527 kts 303°
2026-04-15 07:47 56.26826 -8.30265 37602 ft 527 kts 303°
2026-04-15 07:47 56.31420 -8.40566 37606 ft 527 kts 303°
2026-04-15 07:48 56.36004 -8.50892 37602 ft 528 kts 303°
2026-04-15 07:48 56.40587 -8.61256 37595 ft 528 kts 303°
2026-04-15 07:49 56.45160 -8.71643 37601 ft 528 kts 303°
2026-04-15 07:49 56.49731 -8.82075 37592 ft 530 kts 303°
2026-04-15 07:50 56.54293 -8.92528 37593 ft 530 kts 303°
2026-04-15 07:50 56.58864 -9.03045 37584 ft 530 kts 303°
2026-04-15 07:51 56.63418 -9.13570 37579 ft 530 kts 303°
2026-04-15 07:51 56.67935 -9.24054 37581 ft 530 kts 303°
2026-04-15 07:52 56.72472 -9.34633 37577 ft 530 kts 303°
2026-04-15 07:52 56.77009 -9.45260 37577 ft 531 kts 303°
2026-04-15 07:53 56.81544 -9.55930 37572 ft 532 kts 302°
2026-04-15 07:53 56.86047 -9.66565 37572 ft 532 kts 302°
2026-04-15 07:54 56.90566 -9.77287 37567 ft 532 kts 302°
2026-04-15 07:54 56.95075 -9.88034 37567 ft 532 kts 302°
2026-04-15 07:55 56.99664 -9.98699 37567 ft 536 kts 308°
2026-04-15 07:56 57.07917 -10.12751 37569 ft 541 kts 315°
2026-04-15 07:56 57.13582 -10.21881 37565 ft 541 kts 315°
2026-04-15 07:57 57.19246 -10.31036 37560 ft 541 kts 315°
2026-04-15 07:57 57.24858 -10.40185 37560 ft 541 kts 315°
2026-04-15 07:58 57.30488 -10.49420 37556 ft 541 kts 315°
2026-04-15 07:58 57.36103 -10.58675 37553 ft 541 kts 314°
2026-04-15 07:59 57.41718 -10.67968 37551 ft 540 kts 314°
2026-04-15 07:59 57.47324 -10.77287 37553 ft 540 kts 315°
2026-04-15 08:00 57.52928 -10.86640 37553 ft 541 kts 314°
2026-04-15 08:00 57.58486 -10.95953 37551 ft 541 kts 314°
2026-04-15 08:01 57.64108 -11.05420 37550 ft 540 kts 314°
2026-04-15 08:01 57.69643 -11.14779 37547 ft 540 kts 314°
2026-04-15 08:02 57.75208 -11.24231 37540 ft 540 kts 314°
2026-04-15 08:02 57.80777 -11.33730 37540 ft 541 kts 314°
2026-04-15 08:03 57.86335 -11.43249 37536 ft 541 kts 314°
2026-04-15 08:03 57.91892 -11.52809 37536 ft 541 kts 314°
2026-04-15 08:04 57.97402 -11.62332 37533 ft 541 kts 314°
2026-04-15 08:04 58.02941 -11.71944 37577 ft 541 kts 314°
2026-04-15 08:05 58.08466 -11.81575 37535 ft 540 kts 314°
2026-04-15 08:05 58.13975 -11.91222 37525 ft 539 kts 314°
2026-04-15 08:06 58.19479 -12.00904 37528 ft 539 kts 313°
2026-04-15 08:06 58.24973 -12.10609 37525 ft 539 kts 313°
2026-04-15 08:07 58.30462 -12.20350 37525 ft 539 kts 313°
2026-04-15 08:07 58.35937 -12.30109 37525 ft 539 kts 313°
2026-04-15 08:08 58.41412 -12.39911 37526 ft 539 kts 313°
2026-04-15 08:08 58.46837 -12.49667 37525 ft 539 kts 313°
2026-04-15 08:09 58.52297 -12.59529 37554 ft 540 kts 313°
2026-04-15 08:09 58.57747 -12.69418 37521 ft 540 kts 313°
2026-04-15 08:10 58.63192 -12.79343 37518 ft 540 kts 313°
2026-04-15 08:10 58.68630 -12.89300 37522 ft 540 kts 313°
2026-04-15 08:11 58.74069 -12.99305 37516 ft 540 kts 313°
2026-04-15 08:11 58.78575 -13.07627 37516 ft 540 kts 313°
2026-04-15 08:12 58.83983 -13.17658 37518 ft 540 kts 313°
2026-04-15 08:12 58.89406 -13.27762 37518 ft 540 kts 313°
2026-04-15 08:13 58.94775 -13.37812 37513 ft 540 kts 313°
2026-04-15 08:13 59.00168 -13.47954 37512 ft 539 kts 313°
2026-04-15 08:14 59.05549 -13.58118 37513 ft 539 kts 312°
2026-04-15 08:14 59.10926 -13.68324 37510 ft 539 kts 312°
2026-04-15 08:15 59.16290 -13.78551 37507 ft 539 kts 312°
2026-04-15 08:15 59.21611 -13.88743 37514 ft 539 kts 312°
2026-04-15 08:16 59.26965 -13.99045 37517 ft 539 kts 312°
2026-04-15 08:16 59.32307 -14.09373 37505 ft 539 kts 312°
2026-04-15 08:17 59.37635 -14.19721 37505 ft 539 kts 312°
2026-04-15 08:17 59.42952 -14.30098 37507 ft 539 kts 312°
2026-04-15 08:18 59.48266 -14.40518 37503 ft 539 kts 312°
2026-04-15 08:18 59.53569 -14.50964 37503 ft 539 kts 312°
2026-04-15 08:19 59.58862 -14.61440 37507 ft 539 kts 312°
2026-04-15 08:19 59.64118 -14.71893 37506 ft 539 kts 312°
2026-04-15 08:20 59.69395 -14.82437 37489 ft 538 kts 312°
2026-04-15 08:20 59.74654 -14.92994 37497 ft 538 kts 311°
2026-04-15 08:21 59.79905 -15.03587 37496 ft 538 kts 311°
2026-04-15 08:21 59.85149 -15.14215 37494 ft 538 kts 311°
2026-04-15 08:22 59.90388 -15.24885 37495 ft 538 kts 311°
2026-04-15 08:22 59.95575 -15.35498 37494 ft 537 kts 311°
2026-04-15 08:23 60.00779 -15.46199 37494 ft 536 kts 311°
2026-04-15 08:23 60.05977 -15.56939 37495 ft 536 kts 311°
2026-04-15 08:24 60.11167 -15.67712 37490 ft 536 kts 311°
2026-04-15 08:24 60.16339 -15.78503 37489 ft 536 kts 311°
2026-04-15 08:25 60.21471 -15.89260 37488 ft 536 kts 311°
2026-04-15 08:25 60.26622 -16.00112 37484 ft 536 kts 311°
2026-04-15 08:26 60.31764 -16.10996 37483 ft 536 kts 311°
2026-04-15 08:26 60.36898 -16.21916 37486 ft 536 kts 311°
2026-04-15 08:27 60.42025 -16.32876 37485 ft 536 kts 311°
2026-04-15 08:27 60.47143 -16.43869 37485 ft 536 kts 311°
2026-04-15 08:28 60.52259 -16.54913 37480 ft 536 kts 311°
2026-04-15 08:28 60.57320 -16.65892 37481 ft 535 kts 311°
2026-04-15 08:29 60.62415 -16.76999 37479 ft 535 kts 311°
2026-04-15 08:29 60.67492 -16.88122 37473 ft 535 kts 310°
2026-04-15 08:30 60.72570 -16.99302 37475 ft 535 kts 310°
2026-04-15 08:30 60.77626 -17.10491 37474 ft 535 kts 310°
2026-04-15 08:31 60.82676 -17.21721 37471 ft 535 kts 310°
2026-04-15 08:31 60.87715 -17.32983 37472 ft 535 kts 310°
2026-04-15 08:32 60.92709 -17.44203 37461 ft 535 kts 310°
2026-04-15 08:32 60.97730 -17.55540 37461 ft 535 kts 310°
2026-04-15 08:33 61.02733 -17.66892 37462 ft 535 kts 310°
2026-04-15 08:33 61.07727 -17.78282 37460 ft 535 kts 310°
2026-04-15 08:34 61.12681 -17.89635 37459 ft 534 kts 310°
2026-04-15 08:34 61.17652 -18.01090 37459 ft 534 kts 310°
2026-04-15 08:35 61.22609 -18.12568 37451 ft 534 kts 310°
2026-04-15 08:35 61.27558 -18.24086 37451 ft 534 kts 310°
2026-04-15 08:36 61.32501 -18.35652 37453 ft 534 kts 310°
2026-04-15 08:36 61.37420 -18.47219 37454 ft 533 kts 309°
2026-04-15 08:37 61.42339 -18.58846 37452 ft 533 kts 310°
2026-04-15 08:37 61.47206 -18.70407 37449 ft 532 kts 310°
2026-04-15 08:38 61.52083 -18.82056 37444 ft 532 kts 310°
2026-04-15 08:38 61.56952 -18.93745 37447 ft 532 kts 309°
2026-04-15 08:39 61.61809 -19.05467 37439 ft 531 kts 309°
2026-04-15 08:39 61.66654 -19.17218 37437 ft 531 kts 309°
2026-04-15 08:40 61.71462 -19.28943 37437 ft 531 kts 309°
2026-04-15 08:40 61.76286 -19.40766 37431 ft 531 kts 309°
2026-04-15 08:41 61.81100 -19.52628 37429 ft 531 kts 309°
2026-04-15 08:41 61.85910 -19.64543 37429 ft 531 kts 309°
2026-04-15 08:42 61.90670 -19.76395 37428 ft 530 kts 309°
2026-04-15 08:42 61.95437 -19.88326 37426 ft 529 kts 309°
2026-04-15 08:43 62.00198 -20.00310 37417 ft 529 kts 309°
2026-04-15 08:43 62.04824 -20.12497 37421 ft 529 kts 307°
2026-04-15 08:44 62.09318 -20.24894 37424 ft 528 kts 306°
2026-04-15 08:44 62.13820 -20.37328 37412 ft 528 kts 306°
2026-04-15 08:45 62.18305 -20.49685 37412 ft 528 kts 306°
2026-04-15 08:45 62.22816 -20.62140 37410 ft 529 kts 306°
2026-04-15 08:46 62.27322 -20.74648 37414 ft 529 kts 306°
2026-04-15 08:46 62.31813 -20.87184 37405 ft 529 kts 307°
2026-04-15 08:47 62.36270 -20.99698 37405 ft 529 kts 306°
2026-04-15 08:47 62.40733 -21.12297 37396 ft 529 kts 306°
2026-04-15 08:48 62.45202 -21.24984 37396 ft 529 kts 306°
2026-04-15 08:48 62.49620 -21.37595 37391 ft 529 kts 306°
2026-04-15 08:49 62.54061 -21.50343 37392 ft 530 kts 306°
2026-04-15 08:49 62.58486 -21.63119 37393 ft 529 kts 306°
2026-04-15 08:50 62.62901 -21.75934 37390 ft 529 kts 306°
2026-04-15 08:50 62.67302 -21.88785 37380 ft 529 kts 306°
2026-04-15 08:51 62.71688 -22.01659 37410 ft 529 kts 305°
2026-04-15 08:51 62.76022 -22.14455 37375 ft 526 kts 305°
2026-04-15 08:52 62.80355 -22.27323 37373 ft 526 kts 305°
2026-04-15 08:52 62.84681 -22.40242 37370 ft 526 kts 305°
2026-04-15 08:53 62.88993 -22.53195 37371 ft 526 kts 305°
2026-04-15 08:53 62.93298 -22.66194 37367 ft 526 kts 305°
2026-04-15 08:54 62.97585 -22.79218 37366 ft 526 kts 304°
2026-04-15 08:54 63.01858 -22.92272 37364 ft 526 kts 304°
2026-04-15 08:55 63.06123 -23.05378 37365 ft 526 kts 304°
2026-04-15 08:55 63.10370 -23.18504 37369 ft 525 kts 304°
2026-04-15 08:56 63.14604 -23.31670 37374 ft 525 kts 304°
2026-04-15 08:56 63.18812 -23.44821 37382 ft 530 kts 304°
2026-04-15 08:57 63.23074 -23.58235 37384 ft 531 kts 304°
2026-04-15 08:57 63.27297 -23.71585 37399 ft 528 kts 304°
2026-04-15 08:58 63.31506 -23.84972 37389 ft 525 kts 303°
2026-04-15 08:58 63.37780 -24.05095 37405 ft 527 kts 303°
2026-04-15 08:59 63.41957 -24.18602 37408 ft 529 kts 303°
2026-04-15 08:59 63.46124 -24.32136 37424 ft 530 kts 303°
2026-04-15 09:00 63.50284 -24.45719 37429 ft 535 kts 302°
2026-04-15 09:00 63.54475 -24.59508 37438 ft 531 kts 303°
2026-04-15 09:01 63.57941 -24.70929 37444 ft 528 kts 302°
2026-04-15 09:01 63.62036 -24.84557 37443 ft 528 kts 303°
2026-04-15 09:02 63.66101 -24.98174 37450 ft 522 kts 302°
2026-04-15 09:02 63.70155 -25.11805 37461 ft 526 kts 302°
2026-04-15 09:03 63.74224 -25.25613 37456 ft 527 kts 302°
2026-04-15 09:03 63.78251 -25.39309 37481 ft 524 kts 302°
2026-04-15 09:04 63.82286 -25.53141 37478 ft 526 kts 302°
2026-04-15 09:04 63.86296 -25.66985 37481 ft 524 kts 302°
2026-04-15 09:05 63.90275 -25.80780 37492 ft 521 kts 301°
2026-04-15 09:05 63.94232 -25.94619 37500 ft 521 kts 302°
2026-04-15 09:06 63.98136 -26.08337 37504 ft 517 kts 302°
2026-04-15 09:06 64.02030 -26.22081 37518 ft 515 kts 302°
2026-04-15 09:07 64.05928 -26.35927 37523 ft 521 kts 302°
2026-04-15 09:07 64.09827 -26.49886 37542 ft 520 kts 301°
2026-04-15 09:08 64.13716 -26.63881 37541 ft 523 kts 301°
2026-04-15 09:08 64.17604 -26.77974 37540 ft 527 kts 301°
2026-04-15 09:09 64.21489 -26.92155 37556 ft 523 kts 300°
2026-04-15 09:09 64.25336 -27.06283 37549 ft 518 kts 301°
2026-04-15 09:10 64.29169 -27.20423 37592 ft 523 kts 300°
2026-04-15 09:10 64.32983 -27.34618 37580 ft 517 kts 301°
2026-04-15 09:11 64.36756 -27.48697 37597 ft 518 kts 300°
2026-04-15 09:11 64.40522 -27.62903 37593 ft 516 kts 300°
2026-04-15 09:12 64.44260 -27.77016 37615 ft 520 kts 299°
2026-04-15 09:12 64.48004 -27.91337 37593 ft 517 kts 300°
2026-04-15 09:13 64.51737 -28.05627 37606 ft 519 kts 300°
2026-04-15 09:13 64.55472 -28.20033 37632 ft 521 kts 298°
2026-04-15 09:14 64.59198 -28.34530 37630 ft 523 kts 298°
2026-04-15 09:14 64.62897 -28.49073 37630 ft 518 kts 300°
2026-04-15 09:15 64.66541 -28.63414 37654 ft 514 kts 299°
2026-04-15 09:15 64.70200 -28.77794 37661 ft 517 kts 298°
2026-04-15 09:16 64.73838 -28.92323 37677 ft 517 kts 298°
2026-04-15 09:16 64.77428 -29.06829 37670 ft 510 kts 298°
2026-04-15 09:17 64.80985 -29.21214 37686 ft 509 kts 298°
2026-04-15 09:17 64.84534 -29.35635 37684 ft 511 kts 297°
2026-04-15 09:18 64.88061 -29.50072 37684 ft 513 kts 297°
2026-04-15 09:18 64.91624 -29.64734 37696 ft 518 kts 296°
2026-04-15 09:19 64.95161 -29.79476 37701 ft 513 kts 298°
2026-04-15 09:19 64.98661 -29.94113 37719 ft 510 kts 296°
2026-04-15 09:20 65.01370 -30.09580 37727 ft 509 kts 287°
2026-04-15 09:20 65.03594 -30.25446 37721 ft 508 kts 284°
2026-04-15 09:21 65.05718 -30.41357 37727 ft 504 kts 285°
2026-04-15 09:21 65.07833 -30.57245 37745 ft 507 kts 285°
2026-04-15 09:22 65.09944 -30.73156 37741 ft 505 kts 284°
2026-04-15 09:22 65.12017 -30.88973 37750 ft 504 kts 285°
2026-04-15 09:23 65.14089 -31.04868 37760 ft 504 kts 285°
2026-04-15 09:23 65.16136 -31.20796 37763 ft 503 kts 285°
2026-04-15 09:24 65.18167 -31.36692 37763 ft 501 kts 284°
2026-04-15 09:24 65.20175 -31.52563 37780 ft 500 kts 283°
2026-04-15 09:25 65.22161 -31.68463 37779 ft 500 kts 284°
2026-04-15 09:25 65.24121 -31.84268 37805 ft 499 kts 284°
2026-04-15 09:26 65.26068 -32.00146 37802 ft 498 kts 284°
2026-04-15 09:26 65.28005 -32.16088 37801 ft 499 kts 284°
2026-04-15 09:27 65.29912 -32.31954 37821 ft 499 kts 283°
2026-04-15 09:27 65.31814 -32.47965 37830 ft 499 kts 283°
2026-04-15 09:28 65.33699 -32.63944 37842 ft 499 kts 284°
2026-04-15 09:28 65.35564 -32.79948 37835 ft 498 kts 282°
2026-04-15 09:29 65.37399 -32.95858 37834 ft 498 kts 282°
2026-04-15 09:29 65.39233 -33.11937 37853 ft 499 kts 282°
2026-04-15 09:30 65.41048 -33.28024 37852 ft 499 kts 283°
2026-04-15 09:30 65.42846 -33.44130 37851 ft 498 kts 283°
2026-04-15 09:31 65.44615 -33.60143 37866 ft 498 kts 281°
2026-04-15 09:31 65.46378 -33.76273 37875 ft 498 kts 282°
2026-04-15 09:32 65.48121 -33.92409 37884 ft 496 kts 282°
2026-04-15 09:32 65.49837 -34.08494 37884 ft 495 kts 283°
2026-04-15 09:33 65.51525 -34.24489 37886 ft 495 kts 282°
2026-04-15 09:33 65.53208 -34.40599 37897 ft 496 kts 281°
2026-04-15 09:34 65.54876 -34.56750 37894 ft 496 kts 281°
2026-04-15 09:34 65.56525 -34.72909 37897 ft 495 kts 282°
2026-04-15 09:35 65.58155 -34.89063 37908 ft 494 kts 282°
2026-04-15 09:35 65.59769 -35.05241 37908 ft 493 kts 282°
2026-04-15 09:36 65.61355 -35.21363 37917 ft 492 kts 281°
2026-04-15 09:36 65.62923 -35.37493 37916 ft 492 kts 282°
2026-04-15 09:37 65.64477 -35.53643 37919 ft 492 kts 281°
2026-04-15 09:37 65.66015 -35.69822 37927 ft 492 kts 281°
2026-04-15 09:38 65.67523 -35.85930 37934 ft 492 kts 281°
2026-04-15 09:38 65.69021 -36.02119 37931 ft 492 kts 281°
2026-04-15 09:39 65.70504 -36.18331 37938 ft 491 kts 281°
2026-04-15 09:39 65.71961 -36.34472 37939 ft 491 kts 281°
2026-04-15 09:40 65.73407 -36.50691 37944 ft 491 kts 281°
2026-04-15 09:40 65.74835 -36.66926 37931 ft 491 kts 281°
2026-04-15 09:41 65.76247 -36.83186 37925 ft 491 kts 281°
2026-04-15 09:41 65.77643 -36.99477 37922 ft 491 kts 280°
2026-04-15 09:42 65.79014 -37.15699 37926 ft 490 kts 280°
2026-04-15 09:42 65.80371 -37.31985 37940 ft 490 kts 280°
2026-04-15 09:43 65.81713 -37.48302 37954 ft 491 kts 280°
2026-04-15 09:43 65.83038 -37.64653 37958 ft 491 kts 280°
2026-04-15 09:44 65.84338 -37.80926 37951 ft 490 kts 279°
2026-04-15 09:44 65.85627 -37.97290 37959 ft 490 kts 279°
2026-04-15 09:45 65.86897 -38.13649 37955 ft 490 kts 279°
2026-04-15 09:45 65.88141 -38.29909 37968 ft 489 kts 279°
2026-04-15 09:46 65.89375 -38.46283 37956 ft 489 kts 279°
2026-04-15 09:46 65.90590 -38.62662 37965 ft 489 kts 279°
2026-04-15 09:47 65.91789 -38.79071 37992 ft 489 kts 279°
2026-04-15 09:47 65.92971 -38.95492 37989 ft 488 kts 278°
2026-04-15 09:48 65.94132 -39.11891 38011 ft 488 kts 278°
2026-04-15 09:48 65.95083 -39.25515 38001 ft 487 kts 278°
2026-04-15 09:49 65.96391 -39.44577 37992 ft 487 kts 278°
2026-04-15 09:49 65.97320 -39.58323 38002 ft 487 kts 278°
2026-04-15 09:50 65.98404 -39.74633 38001 ft 487 kts 277°
2026-04-15 09:50 65.99480 -39.91077 38006 ft 487 kts 277°
2026-04-15 09:51 66.01081 -40.07275 38008 ft 489 kts 285°
2026-04-15 09:51 66.03167 -40.23120 38010 ft 489 kts 287°
2026-04-15 09:52 66.05323 -40.38997 38004 ft 489 kts 287°
2026-04-15 09:52 66.07466 -40.54913 38008 ft 489 kts 286°
2026-04-15 09:53 66.09581 -40.70871 38007 ft 489 kts 286°
2026-04-15 09:53 66.11671 -40.86835 38007 ft 489 kts 286°
2026-04-15 09:54 66.13746 -41.02847 38007 ft 489 kts 286°
2026-04-15 09:54 66.15790 -41.18768 38010 ft 489 kts 285°
2026-04-15 09:55 66.17834 -41.34842 38014 ft 489 kts 285°
2026-04-15 09:55 66.19859 -41.50923 38015 ft 489 kts 285°
2026-04-15 09:56 66.21866 -41.67014 38013 ft 489 kts 285°
2026-04-15 09:57 66.24849 -41.91227 38022 ft 489 kts 284°
2026-04-15 09:57 66.26802 -42.07290 38024 ft 489 kts 284°
2026-04-15 09:58 66.28752 -42.23486 38028 ft 490 kts 284°
2026-04-15 09:58 66.30688 -42.39734 38026 ft 490 kts 284°
2026-04-15 09:59 66.32606 -42.55996 38027 ft 490 kts 284°
2026-04-15 09:59 66.34507 -42.72280 38033 ft 490 kts 284°
2026-04-15 10:00 66.36391 -42.88589 38032 ft 490 kts 283°
2026-04-15 10:00 66.38258 -43.04925 38040 ft 490 kts 283°
2026-04-15 10:01 66.40099 -43.21206 38036 ft 491 kts 283°
2026-04-15 10:01 66.41935 -43.37622 38032 ft 491 kts 283°
2026-04-15 10:02 66.43755 -43.54069 38031 ft 491 kts 283°
2026-04-15 10:02 66.45560 -43.70559 38032 ft 492 kts 282°
2026-04-15 10:03 66.47349 -43.87093 38031 ft 492 kts 282°
2026-04-15 10:03 66.49107 -44.03514 38030 ft 492 kts 282°
2026-04-15 10:04 66.50864 -44.20121 38020 ft 493 kts 282°
2026-04-15 10:04 66.52604 -44.36763 38020 ft 493 kts 282°
2026-04-15 10:05 66.54326 -44.53410 38018 ft 493 kts 282°
2026-04-15 10:05 66.56030 -44.70083 38018 ft 493 kts 282°
2026-04-15 10:06 66.57716 -44.86776 38018 ft 493 kts 281°
2026-04-15 10:06 66.59385 -45.03503 38013 ft 493 kts 281°
2026-04-15 10:07 66.61029 -45.20179 38024 ft 494 kts 281°
2026-04-15 10:07 66.62667 -45.36997 38012 ft 494 kts 281°
2026-04-15 10:08 66.64290 -45.53862 38013 ft 494 kts 281°
2026-04-15 10:08 66.65892 -45.70722 38011 ft 494 kts 280°
2026-04-15 10:09 66.67467 -45.87507 38002 ft 494 kts 280°
2026-04-15 10:09 66.69032 -46.04414 38002 ft 496 kts 280°
2026-04-15 10:10 66.70586 -46.21410 37991 ft 496 kts 280°
2026-04-15 10:10 66.72122 -46.38421 37990 ft 496 kts 280°
2026-04-15 10:11 66.73640 -46.55464 37985 ft 496 kts 279°
2026-04-15 10:11 66.75138 -46.72513 37980 ft 496 kts 279°
2026-04-15 10:12 66.76619 -46.89594 37991 ft 496 kts 279°
2026-04-15 10:12 66.78070 -47.06568 37998 ft 497 kts 279°
2026-04-15 10:13 66.79513 -47.23680 37993 ft 497 kts 279°
2026-04-15 10:13 66.80939 -47.40828 38012 ft 496 kts 279°
2026-04-15 10:14 66.82346 -47.57988 38013 ft 496 kts 278°
2026-04-15 10:14 66.83736 -47.75196 38026 ft 496 kts 278°
2026-04-15 10:15 66.85104 -47.92378 38032 ft 496 kts 278°
2026-04-15 10:15 66.86455 -48.09606 38011 ft 497 kts 278°
2026-04-15 10:16 66.87781 -48.26766 37994 ft 497 kts 278°
2026-04-15 10:16 66.89096 -48.44043 37990 ft 497 kts 277°
2026-04-15 10:17 66.90394 -48.61364 37973 ft 497 kts 277°
2026-04-15 10:17 66.91671 -48.78670 37936 ft 497 kts 277°
2026-04-15 10:18 66.92930 -48.96021 37907 ft 498 kts 277°
2026-04-15 10:18 66.94173 -49.13434 37900 ft 498 kts 277°
2026-04-15 10:19 66.95395 -49.30825 37899 ft 498 kts 276°
2026-04-15 10:19 66.96601 -49.48264 37838 ft 498 kts 276°
2026-04-15 10:20 66.97787 -49.65711 37836 ft 498 kts 276°
2026-04-15 10:20 66.98944 -49.83043 37813 ft 498 kts 276°
2026-04-15 10:21 67.00090 -50.00503 37811 ft 498 kts 276°
2026-04-15 10:21 67.00857 -50.18060 37779 ft 495 kts 270°
2026-04-15 10:22 67.01248 -50.35633 37782 ft 494 kts 270°
2026-04-15 10:22 67.01655 -50.53212 37783 ft 495 kts 270°
2026-04-15 10:23 67.02114 -50.70802 37805 ft 495 kts 271°
2026-04-15 10:23 67.02581 -50.88380 37805 ft 495 kts 271°
2026-04-15 10:24 67.03031 -51.05960 37800 ft 495 kts 270°
2026-04-15 10:24 67.03460 -51.23567 37779 ft 495 kts 270°
2026-04-15 10:25 67.03865 -51.41157 37769 ft 495 kts 270°
2026-04-15 10:25 67.04249 -51.58649 37753 ft 495 kts 270°
2026-04-15 10:26 67.04616 -51.76259 37760 ft 495 kts 270°
2026-04-15 10:26 67.04964 -51.93861 37753 ft 494 kts 270°
2026-04-15 10:27 67.05292 -52.11464 37765 ft 494 kts 270°
2026-04-15 10:27 67.05602 -52.29078 37744 ft 495 kts 270°
2026-04-15 10:28 67.05890 -52.46590 37733 ft 495 kts 270°
2026-04-15 10:28 67.06161 -52.64222 37734 ft 495 kts 269°
2026-04-15 10:29 67.06412 -52.81880 37720 ft 495 kts 269°
2026-04-15 10:29 67.06642 -52.99506 37723 ft 495 kts 269°
2026-04-15 10:30 67.06853 -53.17149 37723 ft 495 kts 269°
2026-04-15 10:30 67.07048 -53.34795 37697 ft 495 kts 268°
2026-04-15 10:31 67.07219 -53.52350 37697 ft 496 kts 268°
2026-04-15 10:31 67.07371 -53.70043 37686 ft 496 kts 268°
2026-04-15 10:32 67.07506 -53.87731 37680 ft 496 kts 268°
2026-04-15 10:32 67.07621 -54.05407 37680 ft 495 kts 268°
2026-04-15 10:33 67.07716 -54.23103 37682 ft 495 kts 268°
2026-04-15 10:33 67.07792 -54.40788 37684 ft 496 kts 267°
2026-04-15 10:34 67.07847 -54.58389 37673 ft 497 kts 267°
2026-04-15 10:34 67.07883 -54.76109 37679 ft 496 kts 267°
2026-04-15 10:35 67.07899 -54.93823 37682 ft 496 kts 266°
2026-04-15 10:35 67.07896 -55.11529 37682 ft 496 kts 266°
2026-04-15 10:36 67.07874 -55.29228 37687 ft 495 kts 266°
2026-04-15 10:36 67.07833 -55.46760 37690 ft 495 kts 266°
2026-04-15 10:37 67.07770 -55.64458 37680 ft 496 kts 266°
2026-04-15 10:37 67.07689 -55.82180 37682 ft 496 kts 266°
2026-04-15 10:38 67.07588 -55.99923 37676 ft 496 kts 266°
2026-04-15 10:38 67.07468 -56.17543 37678 ft 496 kts 266°
2026-04-15 10:39 67.07328 -56.35262 37679 ft 496 kts 265°
2026-04-15 10:39 67.07197 -56.49963 37679 ft 496 kts 265°
2026-04-15 10:40 67.07021 -56.67655 37704 ft 497 kts 265°
2026-04-15 10:40 67.06826 -56.85357 37672 ft 496 kts 265°
2026-04-15 10:41 67.06610 -57.03026 37679 ft 495 kts 264°
2026-04-15 10:41 67.06375 -57.20670 37675 ft 495 kts 264°
2026-04-15 10:42 67.06121 -57.38341 37667 ft 495 kts 264°
2026-04-15 10:42 67.05849 -57.55877 37671 ft 495 kts 264°
2026-04-15 10:43 67.05556 -57.73524 37666 ft 496 kts 264°
2026-04-15 10:43 67.05242 -57.91202 37664 ft 497 kts 264°
2026-04-15 10:44 67.04910 -58.08894 37654 ft 497 kts 264°
2026-04-15 10:44 67.04558 -58.26566 37667 ft 497 kts 263°
2026-04-15 10:45 67.04186 -58.44239 37655 ft 497 kts 263°
2026-04-15 10:45 67.03795 -58.61874 37647 ft 496 kts 263°
2026-04-15 10:46 67.03384 -58.79530 37658 ft 497 kts 263°
2026-04-15 10:46 67.02951 -58.97236 37650 ft 498 kts 263°
2026-04-15 10:47 67.02499 -59.14958 37646 ft 498 kts 263°
2026-04-15 10:47 67.02028 -59.32660 37648 ft 498 kts 263°
2026-04-15 10:48 67.01537 -59.50363 37653 ft 498 kts 262°
2026-04-15 10:48 67.01027 -59.68035 37652 ft 498 kts 262°
2026-04-15 10:49 67.00500 -59.85590 37667 ft 499 kts 262°
2026-04-15 10:49 66.99949 -60.03349 37640 ft 502 kts 262°
2026-04-15 10:50 66.99567 -60.21232 37657 ft 504 kts 264°
2026-04-15 10:50 66.99272 -60.39121 37646 ft 503 kts 264°
2026-04-15 10:51 66.98934 -60.57003 37648 ft 503 kts 264°
2026-04-15 10:51 66.98550 -60.74857 37643 ft 503 kts 263°
2026-04-15 10:52 66.98140 -60.92577 37652 ft 503 kts 263°
2026-04-15 10:52 66.97706 -61.10426 37650 ft 503 kts 263°
2026-04-15 10:53 66.97254 -61.28248 37641 ft 503 kts 263°
2026-04-15 10:53 66.96782 -61.46082 37669 ft 503 kts 263°
2026-04-15 10:54 66.96292 -61.63879 37654 ft 502 kts 263°
2026-04-15 10:54 66.95782 -61.81648 37654 ft 502 kts 262°
2026-04-15 10:55 66.95251 -61.99421 37671 ft 502 kts 262°
2026-04-15 10:55 66.94704 -62.17051 37660 ft 503 kts 262°
2026-04-15 10:56 66.94132 -62.34905 37661 ft 503 kts 262°
2026-04-15 10:56 66.93540 -62.52728 37675 ft 503 kts 262°
2026-04-15 10:57 66.92930 -62.70492 37678 ft 503 kts 262°
2026-04-15 10:57 66.91976 -62.97162 37689 ft 503 kts 261°
2026-04-15 10:58 66.91314 -63.14912 37697 ft 503 kts 262°
2026-04-15 10:58 66.90634 -63.32663 37693 ft 503 kts 262°
2026-04-15 10:59 66.89935 -63.50389 37686 ft 503 kts 262°
2026-04-15 10:59 66.89220 -63.67985 37694 ft 503 kts 261°
2026-04-15 11:00 66.88481 -63.85679 37697 ft 503 kts 261°
2026-04-15 11:00 66.87721 -64.03383 37694 ft 503 kts 261°
2026-04-15 11:01 66.86940 -64.21078 37683 ft 504 kts 261°
2026-04-15 11:01 66.86139 -64.38814 37686 ft 505 kts 261°
2026-04-15 11:02 66.85323 -64.56439 37663 ft 505 kts 261°
2026-04-15 11:02 66.84479 -64.74237 37680 ft 505 kts 261°
2026-04-15 11:03 66.83621 -64.91888 37665 ft 503 kts 261°
2026-04-15 11:03 66.82749 -65.09405 37655 ft 503 kts 261°
2026-04-15 11:04 66.81850 -65.27035 37653 ft 504 kts 261°
2026-04-15 11:04 66.80929 -65.44706 37657 ft 505 kts 261°
2026-04-15 11:05 66.79990 -65.62358 37660 ft 505 kts 260°
2026-04-15 11:05 66.79037 -65.79887 37677 ft 505 kts 260°
2026-04-15 11:06 66.78058 -65.97511 37676 ft 505 kts 260°
2026-04-15 11:06 66.77058 -66.15141 37712 ft 505 kts 260°
2026-04-15 11:07 66.76040 -66.32738 37728 ft 506 kts 260°
2026-04-15 11:07 66.74997 -66.50391 37726 ft 505 kts 260°
2026-04-15 11:08 66.73949 -66.67823 37741 ft 504 kts 259°
2026-04-15 11:08 66.72875 -66.85320 37741 ft 504 kts 259°
2026-04-15 11:09 66.71782 -67.02809 37747 ft 504 kts 259°
2026-04-15 11:09 66.70668 -67.20305 37746 ft 503 kts 259°
2026-04-15 11:10 66.69535 -67.37772 37753 ft 506 kts 259°
2026-04-15 11:10 66.68375 -67.55329 37759 ft 507 kts 259°
2026-04-15 11:11 66.67203 -67.72778 37754 ft 507 kts 259°
2026-04-15 11:11 66.66006 -67.90296 37757 ft 507 kts 258°
2026-04-15 11:12 66.64790 -68.07800 37760 ft 505 kts 258°
2026-04-15 11:12 66.63558 -68.25221 37761 ft 504 kts 258°
2026-04-15 11:13 66.62306 -68.42627 37763 ft 505 kts 258°
2026-04-15 11:13 66.61031 -68.60059 37762 ft 506 kts 258°
2026-04-15 11:14 66.59738 -68.77466 37766 ft 506 kts 258°
2026-04-15 11:14 66.58428 -68.94843 37766 ft 506 kts 258°
2026-04-15 11:15 66.57105 -69.12109 37765 ft 506 kts 257°
2026-04-15 11:15 66.55755 -69.29451 37772 ft 506 kts 257°
2026-04-15 11:16 66.54383 -69.46813 37764 ft 507 kts 257°
2026-04-15 11:16 66.52993 -69.64149 37770 ft 507 kts 257°
2026-04-15 11:17 66.51583 -69.81467 37768 ft 507 kts 257°
2026-04-15 11:17 66.50066 -69.98717 37767 ft 506 kts 252°
2026-04-15 11:18 66.47716 -70.15304 37766 ft 504 kts 248°
2026-04-15 11:18 66.45188 -70.31543 37766 ft 504 kts 247°
2026-04-15 11:19 66.42600 -70.47809 37763 ft 505 kts 247°
2026-04-15 11:19 66.39994 -70.64131 37763 ft 505 kts 247°
2026-04-15 11:20 66.37381 -70.80428 37763 ft 505 kts 247°
2026-04-15 11:20 66.34761 -70.96646 37760 ft 503 kts 247°
2026-04-15 11:21 66.32132 -71.12790 37763 ft 502 kts 247°
2026-04-15 11:21 66.29506 -71.28764 37763 ft 502 kts 246°
2026-04-15 11:22 66.26851 -71.44786 37757 ft 502 kts 246°
2026-04-15 11:22 66.24179 -71.60779 37757 ft 502 kts 246°
2026-04-15 11:23 66.21487 -71.76756 37757 ft 502 kts 246°
2026-04-15 11:23 66.18779 -71.92702 37752 ft 502 kts 246°
2026-04-15 11:24 66.16054 -72.08607 37753 ft 501 kts 246°
2026-04-15 11:24 66.13336 -72.24355 37747 ft 500 kts 246°
2026-04-15 11:25 66.10588 -72.40144 37744 ft 500 kts 246°
2026-04-15 11:25 66.07828 -72.55871 37747 ft 500 kts 246°
2026-04-15 11:26 66.05044 -72.71615 37738 ft 501 kts 246°
2026-04-15 11:26 66.02244 -72.87326 37737 ft 501 kts 245°
2026-04-15 11:27 65.99901 -73.00372 37736 ft 501 kts 245°
2026-04-15 11:27 65.97074 -73.16009 37732 ft 501 kts 245°
2026-04-15 11:28 65.94235 -73.31591 37727 ft 500 kts 245°
2026-04-15 11:28 65.91381 -73.47120 37731 ft 499 kts 245°
2026-04-15 11:29 65.88517 -73.62595 37722 ft 500 kts 245°
2026-04-15 11:29 65.85644 -73.77996 37721 ft 502 kts 245°
2026-04-15 11:30 65.82732 -73.93495 37723 ft 502 kts 245°
2026-04-15 11:30 65.79807 -74.08967 37715 ft 502 kts 244°
2026-04-15 11:31 65.76857 -74.24426 37718 ft 502 kts 244°
2026-04-15 11:31 65.73899 -74.39801 37720 ft 501 kts 245°
2026-04-15 11:32 65.70941 -74.55053 37708 ft 500 kts 244°
2026-04-15 11:32 65.67956 -74.70335 37715 ft 501 kts 245°
2026-04-15 11:33 65.64955 -74.85604 37712 ft 502 kts 244°
2026-04-15 11:33 65.61930 -75.00880 37702 ft 502 kts 244°
2026-04-15 11:34 65.58896 -75.16090 37702 ft 502 kts 244°
2026-04-15 11:34 65.55844 -75.31273 37702 ft 502 kts 244°
2026-04-15 11:35 65.52781 -75.46402 37691 ft 501 kts 244°
2026-04-15 11:35 65.49729 -75.61364 37700 ft 500 kts 244°
2026-04-15 11:36 65.46645 -75.76378 37697 ft 501 kts 244°
2026-04-15 11:36 65.43539 -75.91394 37694 ft 501 kts 244°
2026-04-15 11:37 65.40417 -76.06376 37693 ft 501 kts 244°
2026-04-15 11:37 65.37284 -76.21308 37697 ft 501 kts 244°
2026-04-15 11:38 65.34135 -76.36204 37689 ft 501 kts 243°
2026-04-15 11:38 65.30969 -76.51075 37686 ft 500 kts 244°
2026-04-15 11:39 65.27803 -76.65844 37691 ft 499 kts 244°
2026-04-15 11:39 65.24616 -76.80615 37683 ft 500 kts 244°
2026-04-15 11:40 65.21437 -76.95250 37683 ft 500 kts 243°
2026-04-15 11:40 65.18214 -77.09979 37684 ft 500 kts 243°
2026-04-15 11:41 65.14985 -77.24631 37680 ft 500 kts 243°
2026-04-15 11:41 65.11732 -77.39288 37686 ft 500 kts 243°
2026-04-15 11:42 65.08472 -77.53880 37677 ft 500 kts 243°
2026-04-15 11:42 65.05228 -77.68304 37678 ft 499 kts 243°
2026-04-15 11:43 65.01943 -77.82802 37680 ft 499 kts 243°
2026-04-15 11:43 64.98652 -77.97239 37678 ft 499 kts 243°
2026-04-15 11:44 64.95347 -78.11658 37678 ft 499 kts 243°
2026-04-15 11:44 64.92026 -78.26040 37680 ft 499 kts 243°
2026-04-15 11:45 64.88691 -78.40377 37675 ft 499 kts 243°
2026-04-15 11:45 64.85342 -78.54680 37668 ft 499 kts 243°
2026-04-15 11:46 64.81977 -78.68949 37680 ft 498 kts 243°
2026-04-15 11:46 64.78615 -78.83153 37672 ft 498 kts 243°
2026-04-15 11:47 64.75256 -78.97231 37680 ft 498 kts 243°
2026-04-15 11:47 64.71859 -79.11357 37680 ft 498 kts 243°
2026-04-15 11:48 64.68448 -79.25466 37672 ft 498 kts 243°
2026-04-15 11:48 64.65031 -79.39519 37683 ft 498 kts 242°
2026-04-15 11:49 64.61593 -79.53537 37683 ft 498 kts 242°
2026-04-15 11:49 64.58143 -79.67527 37681 ft 497 kts 243°
2026-04-15 11:50 64.54694 -79.81436 37686 ft 496 kts 243°
2026-04-15 11:50 64.51224 -79.95311 37679 ft 496 kts 242°
2026-04-15 11:51 64.47157 -80.08209 37691 ft 499 kts 233°
2026-04-15 11:51 64.42752 -80.20644 37691 ft 500 kts 233°
2026-04-15 11:52 64.38286 -80.32982 37686 ft 500 kts 233°
2026-04-15 11:52 64.33821 -80.45275 37695 ft 500 kts 233°
2026-04-15 11:53 64.29336 -80.57602 37691 ft 503 kts 234°
2026-04-15 11:53 64.24832 -80.69939 37692 ft 503 kts 232°
2026-04-15 11:54 64.20314 -80.82232 37702 ft 503 kts 233°
2026-04-15 11:54 64.15791 -80.94474 37697 ft 503 kts 233°
2026-04-15 11:55 64.11259 -81.06678 37697 ft 503 kts 233°
2026-04-15 11:55 64.06712 -81.18855 37696 ft 501 kts 232°
2026-04-15 11:56 64.02192 -81.30872 37700 ft 497 kts 232°
2026-04-15 11:56 63.97676 -81.42828 37693 ft 498 kts 232°
2026-04-15 11:57 63.95418 -81.48785 37837 ft 498 kts 232°
2026-04-15 11:57 63.90924 -81.60589 38323 ft 495 kts 232°
2026-04-15 11:57 63.88669 -81.66488 38495 ft 495 kts 232°
2026-04-15 11:58 63.86411 -81.72378 38619 ft 494 kts 231°
2026-04-15 11:58 63.84149 -81.78267 38744 ft 494 kts 232°
2026-04-15 11:58 63.81886 -81.84146 38848 ft 495 kts 232°
2026-04-15 11:58 63.79614 -81.90023 38957 ft 495 kts 232°
2026-04-15 11:59 63.77342 -81.95886 39065 ft 495 kts 232°
2026-04-15 11:59 63.75067 -82.01740 39179 ft 495 kts 231°
2026-04-15 11:59 63.72791 -82.07583 39300 ft 495 kts 231°
2026-04-15 11:59 63.70517 -82.13404 39415 ft 495 kts 231°
2026-04-15 12:00 63.68236 -82.19230 39527 ft 495 kts 231°
2026-04-15 12:00 63.65958 -82.25032 39628 ft 495 kts 231°
2026-04-15 12:00 63.63704 -82.30761 39701 ft 495 kts 231°
2026-04-15 12:01 63.59118 -82.42367 39716 ft 496 kts 231°
2026-04-15 12:01 63.54523 -82.53934 39696 ft 495 kts 231°
2026-04-15 12:02 63.49918 -82.65468 39730 ft 495 kts 231°
2026-04-15 12:02 63.45343 -82.76865 39732 ft 495 kts 231°
2026-04-15 12:03 63.40730 -82.88299 39730 ft 495 kts 231°
2026-04-15 12:03 63.36107 -82.99698 39748 ft 495 kts 231°
2026-04-15 12:04 63.31471 -83.11070 39740 ft 495 kts 231°
2026-04-15 12:04 63.26860 -83.22322 39712 ft 496 kts 231°
2026-04-15 12:05 63.22215 -83.33601 39757 ft 493 kts 231°
2026-04-15 12:05 63.17589 -83.44771 39758 ft 492 kts 231°
2026-04-15 12:06 63.12955 -83.55909 39758 ft 492 kts 231°
2026-04-15 12:06 63.08310 -83.67015 39769 ft 492 kts 230°
2026-04-15 12:07 63.03661 -83.78076 39769 ft 492 kts 230°
2026-04-15 12:07 62.98994 -83.89122 39753 ft 492 kts 230°
2026-04-15 12:08 62.94349 -84.00058 39769 ft 487 kts 230°
2026-04-15 12:08 62.89728 -84.10886 39784 ft 485 kts 231°
2026-04-15 12:09 62.85102 -84.21675 39779 ft 485 kts 230°
2026-04-15 12:09 62.80504 -84.32347 39771 ft 485 kts 230°
2026-04-15 12:10 62.75867 -84.43057 39794 ft 485 kts 230°
2026-04-15 12:10 62.71215 -84.53745 39779 ft 485 kts 231°
2026-04-15 12:11 62.66568 -84.64371 39796 ft 484 kts 231°
2026-04-15 12:11 62.61914 -84.74960 39809 ft 484 kts 230°
2026-04-15 12:12 62.57254 -84.85514 39795 ft 484 kts 231°
2026-04-15 12:12 62.52569 -84.96075 39810 ft 486 kts 230°
2026-04-15 12:13 62.47900 -85.06548 39822 ft 486 kts 230°
2026-04-15 12:13 62.43189 -85.17062 39811 ft 486 kts 230°
2026-04-15 12:14 62.38475 -85.27530 39827 ft 486 kts 230°
2026-04-15 12:14 62.33758 -85.37959 39837 ft 486 kts 230°
2026-04-15 12:15 62.29025 -85.48371 39839 ft 486 kts 230°
2026-04-15 12:15 62.25085 -85.57002 39840 ft 486 kts 230°
2026-04-15 12:16 62.20334 -85.67364 39839 ft 486 kts 230°
2026-04-15 12:16 62.15612 -85.77613 39826 ft 486 kts 230°
2026-04-15 12:17 62.10861 -85.87874 39851 ft 483 kts 230°
2026-04-15 12:17 62.06126 -85.98053 39859 ft 483 kts 230°
2026-04-15 12:18 62.01382 -86.08207 39864 ft 483 kts 230°
2026-04-15 12:18 61.96658 -86.18271 39864 ft 483 kts 230°
2026-04-15 12:19 61.91902 -86.28355 39875 ft 483 kts 230°
2026-04-15 12:19 61.87139 -86.38406 39852 ft 483 kts 230°
2026-04-15 12:20 61.82381 -86.48398 39879 ft 480 kts 230°
2026-04-15 12:20 61.77635 -86.58319 39891 ft 479 kts 230°
2026-04-15 12:21 61.72914 -86.68147 39890 ft 479 kts 230°
2026-04-15 12:21 61.68163 -86.77994 39889 ft 479 kts 230°
2026-04-15 12:22 61.63400 -86.87818 39891 ft 479 kts 230°
2026-04-15 12:22 61.58627 -86.97616 39902 ft 479 kts 230°
2026-04-15 12:23 61.53848 -87.07384 39907 ft 479 kts 230°
2026-04-15 12:23 61.49065 -87.17114 39901 ft 479 kts 230°
2026-04-15 12:24 61.44303 -87.26758 39915 ft 479 kts 229°
2026-04-15 12:24 61.39513 -87.36416 39917 ft 478 kts 229°
2026-04-15 12:25 61.34720 -87.46038 39920 ft 478 kts 229°
2026-04-15 12:25 61.29912 -87.55645 39911 ft 478 kts 229°
2026-04-15 12:26 61.25110 -87.65195 39934 ft 477 kts 229°
2026-04-15 12:26 61.20314 -87.74695 39934 ft 476 kts 229°
2026-04-15 12:27 61.15545 -87.84100 39940 ft 476 kts 229°
2026-04-15 12:27 61.10734 -87.93544 39919 ft 476 kts 229°
2026-04-15 12:28 61.05918 -88.02958 39943 ft 476 kts 229°
2026-04-15 12:28 61.01107 -88.12319 39943 ft 475 kts 229°
2026-04-15 12:29 60.96290 -88.21651 39955 ft 474 kts 229°
2026-04-15 12:29 60.91477 -88.30936 39955 ft 474 kts 229°
2026-04-15 12:30 60.86656 -88.40197 39964 ft 474 kts 229°
2026-04-15 12:30 60.81829 -88.49429 39966 ft 474 kts 229°
2026-04-15 12:31 60.77016 -88.58593 39966 ft 474 kts 229°
2026-04-15 12:31 60.72177 -88.67767 39963 ft 474 kts 228°
2026-04-15 12:32 60.67344 -88.76890 39974 ft 472 kts 228°
2026-04-15 12:32 60.62507 -88.85982 39979 ft 472 kts 228°
2026-04-15 12:33 60.57705 -88.94971 39987 ft 472 kts 228°
2026-04-15 12:33 60.52857 -89.04007 39988 ft 472 kts 228°
2026-04-15 12:34 60.48003 -89.13017 39987 ft 472 kts 228°
2026-04-15 12:34 60.43146 -89.21993 39989 ft 472 kts 228°
2026-04-15 12:35 60.38299 -89.30910 39995 ft 471 kts 228°
2026-04-15 12:35 60.33450 -89.39797 39997 ft 470 kts 228°
2026-04-15 12:36 60.28595 -89.48659 40002 ft 471 kts 228°
2026-04-15 12:36 60.23765 -89.57436 40001 ft 470 kts 227°
2026-04-15 12:37 60.18894 -89.66251 40001 ft 470 kts 227°
2026-04-15 12:37 60.14021 -89.75034 40000 ft 470 kts 227°
2026-04-15 12:38 60.09141 -89.83791 40004 ft 469 kts 227°
2026-04-15 12:38 60.04271 -89.92496 40007 ft 469 kts 227°
2026-04-15 12:39 59.99106 -90.00482 40002 ft 478 kts 216°
2026-04-15 12:39 59.93113 -90.06502 40015 ft 483 kts 211°
2026-04-15 12:40 59.86980 -90.11998 39998 ft 484 kts 210°
2026-04-15 12:40 59.80829 -90.17421 40015 ft 482 kts 210°
2026-04-15 12:41 59.74699 -90.22863 40015 ft 482 kts 210°
2026-04-15 12:41 59.68579 -90.28313 40023 ft 482 kts 210°
2026-04-15 12:42 59.62466 -90.33745 40022 ft 482 kts 210°
2026-04-15 12:42 59.56384 -90.39124 40021 ft 482 kts 210°
2026-04-15 12:43 59.50272 -90.44507 40024 ft 480 kts 210°
2026-04-15 12:43 59.44153 -90.49874 40030 ft 480 kts 210°
2026-04-15 12:44 59.38046 -90.55210 40026 ft 481 kts 210°
2026-04-15 12:44 59.31937 -90.60526 40025 ft 481 kts 210°
2026-04-15 12:45 59.25860 -90.65793 40029 ft 479 kts 210°
2026-04-15 12:45 59.19760 -90.71060 40037 ft 478 kts 210°
2026-04-15 12:46 59.13668 -90.76299 40037 ft 478 kts 210°
2026-04-15 12:46 59.07565 -90.81527 40043 ft 478 kts 210°
2026-04-15 12:47 59.01469 -90.86729 40024 ft 478 kts 210°
2026-04-15 12:47 58.95415 -90.91874 40044 ft 477 kts 210°
2026-04-15 12:48 58.89328 -90.97028 40046 ft 477 kts 210°
2026-04-15 12:48 58.83246 -91.02159 40051 ft 477 kts 210°
2026-04-15 12:49 58.77156 -91.07277 40056 ft 477 kts 210°
2026-04-15 12:49 58.71100 -91.12346 40056 ft 477 kts 210°
2026-04-15 12:50 58.65014 -91.17421 40058 ft 477 kts 210°
2026-04-15 12:50 58.58922 -91.22482 40055 ft 477 kts 210°
2026-04-15 12:51 58.52829 -91.27525 40063 ft 477 kts 210°
2026-04-15 12:51 58.46739 -91.32545 40034 ft 476 kts 209°
2026-04-15 12:52 58.40645 -91.37548 40062 ft 475 kts 209°
2026-04-15 12:52 58.34572 -91.42517 40070 ft 475 kts 209°
2026-04-15 12:53 58.28533 -91.47440 40078 ft 475 kts 209°
2026-04-15 12:53 58.22442 -91.52387 40076 ft 475 kts 209°
2026-04-15 12:54 58.16362 -91.57306 40067 ft 474 kts 209°
2026-04-15 12:54 58.10294 -91.62195 40087 ft 473 kts 209°
2026-04-15 12:55 58.04236 -91.67061 40084 ft 473 kts 209°
2026-04-15 12:55 57.98210 -91.71883 40091 ft 473 kts 209°
2026-04-15 12:56 57.92145 -91.76719 40094 ft 473 kts 209°
2026-04-15 12:56 57.86089 -91.81527 40091 ft 472 kts 209°
2026-04-15 12:57 57.80039 -91.86314 40101 ft 470 kts 209°
2026-04-15 12:57 57.74009 -91.91069 40105 ft 470 kts 209°
2026-04-15 12:58 57.67974 -91.95811 40107 ft 470 kts 209°
2026-04-15 12:58 57.61939 -92.00535 40093 ft 470 kts 209°
2026-04-15 12:59 57.52907 -92.07572 40108 ft 468 kts 209°
2026-04-15 12:59 57.46930 -92.12210 40110 ft 468 kts 209°
2026-04-15 13:00 57.40901 -92.16871 40113 ft 468 kts 209°
2026-04-15 13:00 57.34875 -92.21512 40095 ft 468 kts 209°
2026-04-15 13:01 57.28855 -92.26133 40113 ft 468 kts 209°
2026-04-15 13:01 57.22838 -92.30734 40113 ft 468 kts 209°
2026-04-15 13:02 57.16864 -92.35287 40114 ft 468 kts 209°
2026-04-15 13:02 57.10835 -92.39866 40114 ft 468 kts 209°
2026-04-15 13:03 57.04815 -92.44421 40115 ft 468 kts 209°
2026-04-15 13:03 56.98805 -92.48953 40120 ft 467 kts 209°
2026-04-15 13:04 56.93808 -92.52709 40115 ft 467 kts 209°
2026-04-15 13:04 56.87796 -92.57214 40120 ft 467 kts 208°
2026-04-15 13:05 56.81781 -92.61705 40118 ft 467 kts 208°
2026-04-15 13:05 56.75754 -92.66190 40114 ft 466 kts 208°
2026-04-15 13:06 56.69737 -92.70651 40112 ft 466 kts 208°
2026-04-15 13:06 56.63763 -92.75065 40113 ft 466 kts 208°
2026-04-15 13:07 56.57748 -92.79495 40111 ft 466 kts 208°
2026-04-15 13:07 56.51728 -92.83912 40106 ft 466 kts 208°
2026-04-15 13:08 56.45722 -92.88304 40095 ft 465 kts 208°
2026-04-15 13:08 56.39720 -92.92679 40104 ft 464 kts 208°
2026-04-15 13:09 56.33726 -92.97033 40102 ft 464 kts 208°
2026-04-15 13:09 56.27729 -93.01375 40097 ft 464 kts 208°
2026-04-15 13:10 56.21780 -93.05665 40089 ft 462 kts 208°
2026-04-15 13:10 56.15820 -93.09949 40094 ft 461 kts 208°
2026-04-15 13:11 56.09854 -93.14226 40098 ft 461 kts 208°
2026-04-15 13:11 56.03896 -93.18483 40090 ft 461 kts 208°
2026-04-15 13:12 55.97942 -93.22722 40087 ft 461 kts 208°
2026-04-15 13:12 55.92016 -93.26927 40086 ft 461 kts 208°
2026-04-15 13:13 55.86053 -93.31144 40085 ft 461 kts 208°
2026-04-15 13:13 55.80090 -93.35348 40082 ft 461 kts 208°
2026-04-15 13:14 55.74124 -93.39538 40073 ft 460 kts 208°
2026-04-15 13:14 55.68190 -93.43690 40075 ft 456 kts 208°
2026-04-15 13:15 55.62296 -93.47803 40067 ft 455 kts 208°
2026-04-15 13:15 55.56444 -93.51876 40067 ft 455 kts 208°
2026-04-15 13:16 55.50541 -93.55972 40061 ft 455 kts 208°
2026-04-15 13:16 55.44646 -93.60047 40043 ft 455 kts 208°
2026-04-15 13:17 55.38750 -93.64108 40058 ft 454 kts 208°
2026-04-15 13:17 55.32851 -93.68160 40056 ft 454 kts 208°
2026-04-15 13:18 55.26998 -93.72167 40045 ft 455 kts 208°
2026-04-15 13:18 55.21099 -93.76193 40047 ft 455 kts 207°
2026-04-15 13:19 55.15196 -93.80210 40037 ft 456 kts 207°
2026-04-15 13:19 55.09277 -93.84224 40022 ft 456 kts 207°
2026-04-15 13:20 55.03349 -93.88231 40031 ft 457 kts 207°
2026-04-15 13:20 54.97413 -93.92229 40023 ft 457 kts 207°
2026-04-15 13:21 54.91480 -93.96214 40015 ft 457 kts 207°
2026-04-15 13:21 54.85545 -94.00187 40012 ft 457 kts 207°
2026-04-15 13:22 54.79609 -94.04149 40012 ft 457 kts 207°
2026-04-15 13:22 54.73677 -94.08096 40001 ft 457 kts 207°
2026-04-15 13:23 54.67780 -94.12007 39955 ft 456 kts 207°
2026-04-15 13:23 54.61854 -94.15923 40002 ft 455 kts 207°
2026-04-15 13:24 54.55946 -94.19816 39977 ft 454 kts 207°
2026-04-15 13:24 54.50046 -94.23693 39989 ft 454 kts 207°
2026-04-15 13:25 54.44138 -94.27564 39983 ft 454 kts 207°
2026-04-15 13:25 54.38239 -94.31415 39956 ft 452 kts 207°
2026-04-15 13:26 54.32377 -94.35229 39961 ft 450 kts 207°
2026-04-15 13:26 54.26519 -94.39033 39946 ft 450 kts 207°
2026-04-15 13:27 54.20667 -94.42821 39953 ft 450 kts 207°
2026-04-15 13:27 54.14838 -94.46581 39913 ft 450 kts 207°
2026-04-15 13:28 54.08988 -94.50343 39906 ft 449 kts 207°
2026-04-15 13:28 54.03141 -94.54092 39890 ft 449 kts 207°
2026-04-15 13:29 53.97294 -94.57831 39875 ft 449 kts 207°
2026-04-15 13:29 53.91443 -94.61560 39869 ft 449 kts 207°
2026-04-15 13:30 53.85582 -94.65286 39867 ft 449 kts 207°
2026-04-15 13:30 53.79793 -94.69230 39894 ft 447 kts 210°
2026-04-15 13:31 53.74118 -94.73413 39894 ft 447 kts 210°
2026-04-15 13:31 53.68400 -94.77599 39895 ft 448 kts 210°
2026-04-15 13:32 53.62668 -94.81721 39858 ft 448 kts 209°
2026-04-15 13:32 53.56915 -94.85818 39873 ft 448 kts 209°
2026-04-15 13:33 53.51167 -94.89896 39873 ft 448 kts 209°
2026-04-15 13:33 53.45452 -94.93941 39872 ft 448 kts 209°
2026-04-15 13:34 53.39691 -94.98008 39862 ft 448 kts 209°
2026-04-15 13:34 53.33940 -95.02057 39850 ft 448 kts 209°
2026-04-15 13:35 53.28180 -95.06100 39851 ft 448 kts 209°
2026-04-15 13:35 53.22420 -95.10131 39846 ft 448 kts 209°
2026-04-15 13:36 53.16697 -95.14125 39837 ft 449 kts 209°
2026-04-15 13:36 53.10940 -95.18132 39823 ft 449 kts 208°
2026-04-15 13:37 53.05173 -95.22132 39826 ft 448 kts 208°
2026-04-15 13:37 52.99412 -95.26118 39818 ft 448 kts 208°
2026-04-15 13:38 52.93651 -95.30091 39805 ft 448 kts 208°
2026-04-15 13:38 52.87889 -95.34055 39780 ft 448 kts 208°
2026-04-15 13:39 52.82129 -95.38004 39801 ft 447 kts 208°
2026-04-15 13:39 52.76411 -95.41914 39802 ft 447 kts 208°
2026-04-15 13:40 52.70661 -95.45835 39793 ft 447 kts 208°
2026-04-15 13:40 52.64898 -95.49754 39794 ft 447 kts 208°
2026-04-15 13:41 52.59141 -95.53658 39789 ft 447 kts 208°
2026-04-15 13:41 52.53427 -95.57520 39792 ft 447 kts 208°
2026-04-15 13:42 52.47676 -95.61398 39786 ft 447 kts 208°
2026-04-15 13:42 52.41927 -95.65263 39786 ft 447 kts 208°
2026-04-15 13:43 52.36173 -95.69120 39783 ft 447 kts 208°
2026-04-15 13:43 52.30399 -95.72980 39787 ft 447 kts 208°
2026-04-15 13:44 52.24668 -95.76800 39776 ft 447 kts 208°
2026-04-15 13:44 52.18897 -95.80636 39780 ft 447 kts 208°
2026-04-15 13:45 52.13130 -95.84459 39756 ft 447 kts 207°
2026-04-15 13:47 51.89998 -95.99685 39782 ft 448 kts 207°
2026-04-15 13:47 51.84246 -96.03446 39787 ft 448 kts 207°
2026-04-15 13:48 51.78456 -96.07220 39777 ft 448 kts 207°
2026-04-15 13:48 51.72669 -96.10980 39782 ft 448 kts 207°
2026-04-15 13:49 51.68779 -96.13503 39780 ft 448 kts 207°
2026-04-15 13:49 51.62986 -96.17252 39777 ft 448 kts 207°
2026-04-15 13:50 51.57194 -96.20990 39776 ft 448 kts 207°
2026-04-15 13:50 51.51411 -96.24711 39783 ft 448 kts 207°
2026-04-15 13:51 51.45658 -96.28402 39782 ft 448 kts 206°
2026-04-15 13:51 51.39854 -96.32117 39760 ft 449 kts 206°
2026-04-15 13:52 51.34053 -96.35820 39779 ft 449 kts 206°
2026-04-15 13:52 51.28244 -96.39517 39784 ft 449 kts 206°
2026-04-15 13:53 51.22434 -96.43204 39785 ft 449 kts 206°
2026-04-15 13:53 51.16630 -96.46878 39773 ft 449 kts 206°
2026-04-15 13:54 51.11801 -96.49928 39772 ft 449 kts 206°
2026-04-15 13:54 51.05027 -96.54193 39780 ft 450 kts 206°
2026-04-15 13:55 51.00190 -96.57231 39781 ft 450 kts 206°
2026-04-15 13:55 50.94359 -96.60884 39782 ft 450 kts 206°
2026-04-15 13:56 50.88533 -96.64523 39776 ft 449 kts 206°
2026-04-15 13:56 50.82709 -96.68152 39782 ft 449 kts 206°
2026-04-15 13:57 50.76887 -96.71771 39781 ft 449 kts 206°
2026-04-15 13:57 50.71061 -96.75382 39778 ft 449 kts 206°
2026-04-15 13:58 50.65231 -96.78986 39770 ft 450 kts 206°
2026-04-15 13:58 50.59427 -96.82564 39777 ft 450 kts 206°
2026-04-15 13:59 50.53579 -96.86160 39776 ft 451 kts 206°
2026-04-15 13:59 50.47735 -96.89743 39772 ft 451 kts 206°
2026-04-15 14:00 50.41892 -96.93317 39767 ft 451 kts 206°
2026-04-15 14:00 50.36044 -96.96883 39774 ft 451 kts 205°
2026-04-15 14:01 50.27248 -97.02230 39768 ft 452 kts 205°
2026-04-15 14:02 50.21390 -97.05780 39768 ft 452 kts 205°
2026-04-15 14:02 50.15561 -97.09303 39769 ft 452 kts 205°
2026-04-15 14:03 50.09680 -97.12848 39772 ft 453 kts 205°
2026-04-15 14:03 50.03803 -97.16381 39766 ft 453 kts 205°
2026-04-15 14:04 49.97916 -97.19910 39772 ft 453 kts 205°
2026-04-15 14:04 49.92036 -97.23438 39755 ft 453 kts 206°
2026-04-15 14:05 49.86335 -97.27544 39759 ft 451 kts 209°
2026-04-15 14:05 49.80698 -97.31839 39759 ft 451 kts 210°
2026-04-15 14:06 49.75073 -97.36162 39762 ft 451 kts 210°
2026-04-15 14:06 49.69476 -97.40443 39765 ft 452 kts 210°
2026-04-15 14:07 49.63833 -97.44736 39763 ft 452 kts 210°
2026-04-15 14:07 49.58186 -97.49016 39765 ft 452 kts 210°
2026-04-15 14:08 49.52543 -97.53282 39774 ft 452 kts 210°
2026-04-15 14:08 49.46894 -97.57542 39764 ft 452 kts 209°
2026-04-15 14:09 49.41242 -97.61794 39771 ft 452 kts 210°
2026-04-15 14:09 49.35577 -97.66044 39774 ft 453 kts 209°
2026-04-15 14:10 49.29946 -97.70259 39767 ft 453 kts 209°
2026-04-15 14:10 49.24271 -97.74495 39764 ft 453 kts 209°
2026-04-15 14:11 49.18596 -97.78721 39771 ft 453 kts 209°
2026-04-15 14:11 49.12925 -97.82932 39766 ft 453 kts 209°
2026-04-15 14:12 49.07239 -97.87144 39773 ft 453 kts 209°
2026-04-15 14:12 49.01555 -97.91344 39763 ft 453 kts 209°
2026-04-15 14:13 48.95913 -97.95501 39773 ft 454 kts 209°
2026-04-15 14:13 48.90218 -97.99688 39773 ft 454 kts 209°
2026-04-15 14:14 48.84519 -98.03867 39779 ft 454 kts 209°
2026-04-15 14:14 48.78829 -98.08029 39763 ft 454 kts 209°
2026-04-15 14:15 48.73133 -98.12184 39779 ft 454 kts 209°
2026-04-15 14:15 48.67428 -98.16335 39785 ft 454 kts 209°
2026-04-15 14:16 48.61736 -98.20467 39783 ft 454 kts 209°
2026-04-15 14:16 48.56068 -98.24571 39787 ft 454 kts 208°
2026-04-15 14:17 48.50358 -98.28695 39786 ft 454 kts 208°
2026-04-15 14:17 48.44652 -98.32806 39785 ft 454 kts 208°
2026-04-15 14:18 48.38953 -98.36901 39791 ft 454 kts 208°
2026-04-15 14:18 48.33240 -98.40997 39781 ft 454 kts 208°
2026-04-15 14:19 48.27534 -98.45077 39796 ft 454 kts 208°
2026-04-15 14:19 48.21829 -98.49146 39789 ft 454 kts 208°
2026-04-15 14:20 48.16155 -98.53183 39785 ft 454 kts 208°
2026-04-15 14:20 48.10441 -98.57239 39772 ft 454 kts 208°
2026-04-15 14:21 48.04719 -98.61290 39780 ft 455 kts 208°
2026-04-15 14:21 47.98993 -98.65334 39767 ft 455 kts 208°
2026-04-15 14:22 47.93294 -98.69349 39777 ft 455 kts 208°
2026-04-15 14:22 47.87563 -98.73376 39775 ft 455 kts 208°
2026-04-15 14:23 47.81843 -98.77386 39789 ft 454 kts 208°
2026-04-15 14:23 47.76122 -98.81387 39794 ft 454 kts 208°
2026-04-15 14:24 47.70390 -98.85386 39803 ft 454 kts 208°
2026-04-15 14:24 47.64688 -98.89354 39788 ft 455 kts 208°
2026-04-15 14:25 47.58954 -98.93335 39790 ft 454 kts 208°
2026-04-15 14:25 47.53218 -98.97308 39793 ft 454 kts 208°
2026-04-15 14:26 47.47522 -99.01243 39790 ft 454 kts 208°
2026-04-15 14:26 47.41793 -99.05192 39781 ft 454 kts 208°
2026-04-15 14:27 47.36072 -99.09125 39789 ft 453 kts 208°
2026-04-15 14:27 47.30356 -99.13046 39791 ft 453 kts 208°
2026-04-15 14:28 47.24625 -99.16968 39783 ft 454 kts 208°
2026-04-15 14:28 47.18925 -99.20859 39781 ft 454 kts 208°
2026-04-15 14:29 47.13186 -99.24767 39788 ft 453 kts 208°
2026-04-15 14:29 47.07456 -99.28660 39785 ft 453 kts 208°
2026-04-15 14:30 47.01726 -99.32544 39785 ft 453 kts 208°
2026-04-15 14:30 46.96001 -99.36415 39787 ft 453 kts 208°
2026-04-15 14:31 46.90313 -99.40252 39782 ft 453 kts 208°
2026-04-15 14:31 46.84586 -99.44106 39783 ft 453 kts 208°
2026-04-15 14:32 46.78850 -99.47958 39776 ft 453 kts 208°
2026-04-15 14:32 46.73114 -99.51800 39777 ft 453 kts 208°
2026-04-15 14:33 46.67376 -99.55635 39778 ft 453 kts 208°
2026-04-15 14:33 46.61637 -99.59461 39774 ft 453 kts 208°
2026-04-15 14:34 46.55931 -99.63256 39755 ft 453 kts 208°
2026-04-15 14:34 46.50194 -99.67063 39774 ft 453 kts 208°
2026-04-15 14:35 46.44466 -99.70855 39772 ft 453 kts 207°
2026-04-15 14:35 46.38720 -99.74651 39775 ft 453 kts 207°
2026-04-15 14:36 46.32971 -99.78440 39774 ft 454 kts 207°
2026-04-15 14:36 46.27264 -99.82192 39776 ft 454 kts 207°
2026-04-15 14:37 46.21517 -99.85962 39776 ft 454 kts 207°
2026-04-15 14:37 46.15764 -99.89727 39777 ft 454 kts 207°
2026-04-15 14:38 46.10007 -99.93486 39773 ft 453 kts 207°
2026-04-15 14:38 46.04264 -99.97226 39781 ft 453 kts 207°
2026-04-15 14:39 45.98616 -100.01219 39777 ft 451 kts 212°
2026-04-15 14:39 45.93155 -100.05705 39771 ft 451 kts 213°
2026-04-15 14:40 45.87777 -100.10228 39772 ft 450 kts 213°
2026-04-15 14:40 45.82383 -100.14761 39771 ft 449 kts 213°
2026-04-15 14:41 45.76980 -100.19278 39772 ft 449 kts 213°
2026-04-15 14:41 45.71574 -100.23780 39776 ft 449 kts 213°
2026-04-15 14:42 45.66159 -100.28277 39776 ft 450 kts 213°
2026-04-15 14:42 45.60780 -100.32735 39772 ft 450 kts 212°
2026-04-15 14:43 45.55341 -100.37232 39771 ft 450 kts 212°
2026-04-15 14:43 45.50836 -100.40949 39781 ft 450 kts 212°
2026-04-15 14:44 45.45401 -100.45426 39768 ft 450 kts 212°
2026-04-15 14:44 45.39974 -100.49884 39777 ft 450 kts 212°
2026-04-15 14:45 45.34568 -100.54316 39769 ft 451 kts 212°
2026-04-15 14:45 45.29128 -100.58767 39769 ft 452 kts 212°
2026-04-15 14:46 45.23678 -100.63215 39768 ft 452 kts 212°
2026-04-15 14:46 45.18218 -100.67661 39774 ft 452 kts 212°
2026-04-15 14:47 45.12764 -100.72092 39778 ft 452 kts 212°
2026-04-15 14:47 45.07306 -100.76517 39781 ft 452 kts 212°
2026-04-15 14:48 45.01851 -100.80930 39785 ft 452 kts 212°
2026-04-15 14:48 44.96381 -100.85346 39785 ft 453 kts 212°
2026-04-15 14:49 44.90898 -100.89761 39786 ft 453 kts 212°
2026-04-15 14:49 44.85445 -100.94143 39770 ft 453 kts 211°
2026-04-15 14:50 44.79976 -100.98529 39789 ft 452 kts 211°
2026-04-15 14:50 44.74514 -101.02898 39788 ft 451 kts 211°
2026-04-15 14:51 44.69046 -101.07263 39789 ft 451 kts 211°
2026-04-15 14:51 44.63581 -101.11616 39789 ft 451 kts 211°
2026-04-15 14:52 44.58120 -101.15957 39791 ft 451 kts 211°
2026-04-15 14:52 44.52690 -101.20263 39791 ft 451 kts 211°
2026-04-15 14:53 44.47231 -101.24583 39793 ft 451 kts 211°
2026-04-15 14:53 44.41760 -101.28903 39796 ft 451 kts 211°
2026-04-15 14:54 44.36290 -101.33213 39801 ft 452 kts 211°
2026-04-15 14:54 44.30805 -101.37526 39802 ft 452 kts 211°
2026-04-15 14:55 44.25318 -101.41830 39808 ft 452 kts 211°
2026-04-15 14:55 44.19854 -101.46108 39815 ft 452 kts 211°
2026-04-15 14:56 44.14366 -101.50395 39817 ft 452 kts 211°
2026-04-15 14:56 44.08861 -101.54685 39818 ft 453 kts 211°
2026-04-15 14:57 44.03367 -101.58959 39828 ft 453 kts 211°
2026-04-15 14:57 43.97866 -101.63228 39816 ft 453 kts 211°
2026-04-15 14:58 43.92365 -101.67488 39815 ft 452 kts 211°
2026-04-15 14:58 43.86891 -101.71718 39816 ft 454 kts 211°
2026-04-15 14:59 43.81364 -101.75981 39808 ft 455 kts 211°
2026-04-15 14:59 43.75832 -101.80239 39813 ft 455 kts 211°
2026-04-15 15:00 43.70299 -101.84487 39816 ft 455 kts 211°
2026-04-15 15:00 43.64763 -101.88729 39816 ft 455 kts 211°
2026-04-15 15:01 43.59223 -101.92966 39811 ft 455 kts 211°
2026-04-15 15:01 43.53679 -101.97195 39816 ft 455 kts 211°
2026-04-15 15:02 43.48117 -102.01364 39818 ft 456 kts 207°
2026-04-15 15:02 43.42307 -102.04884 39822 ft 457 kts 205°
2026-04-15 15:03 43.36474 -102.08408 39817 ft 459 kts 206°
2026-04-15 15:03 43.30637 -102.11983 39823 ft 459 kts 206°
2026-04-15 15:04 43.24855 -102.15535 39822 ft 458 kts 206°
2026-04-15 15:04 43.19021 -102.19117 39834 ft 458 kts 206°
2026-04-15 15:05 43.13189 -102.22693 39843 ft 458 kts 206°
2026-04-15 15:05 43.07400 -102.26234 39851 ft 458 kts 206°
2026-04-15 15:06 42.98659 -102.31568 39852 ft 458 kts 206°
2026-04-15 15:06 42.92832 -102.35115 39852 ft 458 kts 206°
2026-04-15 15:07 42.87007 -102.38653 39842 ft 458 kts 206°
2026-04-15 15:07 42.81184 -102.42183 39846 ft 459 kts 206°
2026-04-15 15:08 42.75365 -102.45703 39840 ft 460 kts 206°
2026-04-15 15:08 42.69505 -102.49240 39852 ft 461 kts 206°
2026-04-15 15:09 42.63638 -102.52774 39848 ft 461 kts 206°
2026-04-15 15:09 42.57766 -102.56304 39848 ft 461 kts 206°
2026-04-15 15:10 42.51908 -102.59818 39848 ft 461 kts 206°
2026-04-15 15:10 42.46036 -102.63333 39856 ft 460 kts 206°
2026-04-15 15:11 42.40174 -102.66836 39853 ft 460 kts 206°
2026-04-15 15:11 42.34355 -102.70306 39854 ft 460 kts 206°
2026-04-15 15:12 42.28457 -102.73815 39855 ft 460 kts 205°
2026-04-15 15:12 42.22635 -102.77272 39869 ft 460 kts 206°
2026-04-15 15:13 42.16767 -102.80749 39885 ft 462 kts 206°
2026-04-15 15:13 42.10873 -102.84235 39887 ft 462 kts 205°
2026-04-15 15:14 42.04977 -102.87714 39888 ft 462 kts 205°
2026-04-15 15:14 41.99077 -102.91189 39886 ft 462 kts 205°
2026-04-15 15:15 41.93187 -102.94651 39878 ft 462 kts 205°
2026-04-15 15:15 41.87291 -102.98110 39855 ft 462 kts 205°
2026-04-15 15:16 41.81391 -103.01564 39861 ft 462 kts 205°
2026-04-15 15:16 41.75504 -103.05003 39852 ft 461 kts 205°
2026-04-15 15:17 41.69651 -103.08416 39839 ft 461 kts 205°
2026-04-15 15:17 41.63756 -103.11847 39838 ft 461 kts 205°
2026-04-15 15:18 41.57701 -103.14692 39838 ft 464 kts 196°
2026-04-15 15:18 41.51260 -103.15717 39837 ft 468 kts 185°
2026-04-15 15:19 41.47991 -103.15833 39704 ft 469 kts 185°
2026-04-15 15:19 41.44727 -103.15935 39309 ft 468 kts 185°
2026-04-15 15:19 41.41468 -103.16039 38736 ft 468 kts 184°
2026-04-15 15:19 41.38250 -103.16149 38023 ft 469 kts 185°
2026-04-15 15:20 41.34984 -103.16266 37357 ft 469 kts 185°
2026-04-15 15:20 41.31717 -103.16390 36705 ft 469 kts 185°
2026-04-15 15:20 41.28457 -103.16515 36042 ft 470 kts 185°
2026-04-15 15:20 41.25169 -103.16636 35363 ft 472 kts 184°
2026-04-15 15:21 41.21878 -103.16753 34701 ft 474 kts 184°
2026-04-15 15:21 41.18583 -103.16873 34188 ft 472 kts 184°
2026-04-15 15:21 41.15301 -103.16993 33633 ft 471 kts 183°
2026-04-15 15:21 41.12027 -103.17113 33071 ft 469 kts 183°
2026-04-15 15:22 41.08780 -103.17244 32650 ft 464 kts 184°
2026-04-15 15:22 41.05597 -103.17765 32109 ft 459 kts 194°
2026-04-15 15:22 41.02585 -103.19100 31604 ft 454 kts 207°
2026-04-15 15:22 40.99869 -103.21202 31132 ft 462 kts 219°
2026-04-15 15:23 40.97284 -103.23753 30664 ft 465 kts 220°
2026-04-15 15:23 40.94717 -103.26363 30132 ft 466 kts 220°
2026-04-15 15:23 40.92147 -103.28968 29577 ft 464 kts 220°
2026-04-15 15:23 40.89586 -103.31553 29062 ft 461 kts 220°
2026-04-15 15:24 40.87048 -103.34105 28573 ft 456 kts 220°
2026-04-15 15:24 40.84532 -103.36629 28083 ft 452 kts 220°
2026-04-15 15:24 40.82039 -103.39127 27603 ft 447 kts 220°
2026-04-15 15:24 40.79566 -103.41603 27145 ft 443 kts 220°
2026-04-15 15:25 40.77119 -103.44049 26717 ft 439 kts 220°
2026-04-15 15:25 40.74688 -103.46467 26275 ft 434 kts 220°
2026-04-15 15:25 40.72291 -103.48849 25806 ft 430 kts 220°
2026-04-15 15:25 40.69917 -103.51208 25335 ft 425 kts 220°
2026-04-15 15:26 40.67562 -103.53545 24891 ft 421 kts 220°
2026-04-15 15:26 40.65238 -103.55851 24442 ft 417 kts 220°
2026-04-15 15:26 40.62981 -103.58139 24170 ft 412 kts 221°
2026-04-15 15:26 40.60744 -103.60486 23932 ft 412 kts 221°
2026-04-15 15:27 40.58506 -103.62839 23696 ft 410 kts 221°
2026-04-15 15:27 40.56294 -103.65153 23351 ft 403 kts 221°
2026-04-15 15:27 40.54105 -103.67437 22833 ft 399 kts 222°
2026-04-15 15:27 40.51941 -103.69691 22318 ft 395 kts 221°
2026-04-15 15:28 40.49796 -103.71922 21831 ft 391 kts 221°
2026-04-15 15:28 40.47670 -103.74130 21310 ft 387 kts 221°
2026-04-15 15:28 40.45564 -103.76315 20831 ft 384 kts 221°
2026-04-15 15:28 40.43477 -103.78479 20330 ft 381 kts 221°
2026-04-15 15:29 40.41405 -103.80625 19836 ft 378 kts 221°
2026-04-15 15:29 40.39345 -103.82757 19340 ft 375 kts 221°
2026-04-15 15:29 40.37300 -103.84872 18850 ft 373 kts 221°
2026-04-15 15:29 40.35292 -103.86948 18360 ft 370 kts 221°
2026-04-15 15:30 40.33276 -103.89030 17817 ft 368 kts 221°
2026-04-15 15:30 40.31277 -103.91095 17330 ft 364 kts 221°
2026-04-15 15:30 40.29302 -103.93133 16856 ft 359 kts 221°
2026-04-15 15:30 40.27347 -103.95147 16361 ft 355 kts 221°
2026-04-15 15:31 40.25415 -103.97137 15883 ft 351 kts 221°
2026-04-15 15:31 40.23501 -103.99105 15412 ft 348 kts 221°
2026-04-15 15:31 40.21612 -104.01047 14939 ft 344 kts 221°
2026-04-15 15:31 40.19735 -104.02977 14470 ft 341 kts 221°
2026-04-15 15:32 40.18506 -104.04240 14155 ft 339 kts 220°
2026-04-15 15:32 40.16663 -104.06134 13705 ft 335 kts 220°
2026-04-15 15:32 40.14836 -104.08008 13189 ft 332 kts 220°
2026-04-15 15:32 40.13032 -104.09856 12728 ft 327 kts 220°
2026-04-15 15:33 40.11252 -104.11677 12293 ft 323 kts 220°
2026-04-15 15:33 40.09493 -104.13477 11852 ft 319 kts 220°
2026-04-15 15:33 40.07755 -104.15254 11411 ft 315 kts 220°
2026-04-15 15:33 40.06040 -104.17009 10973 ft 312 kts 220°
2026-04-15 15:34 40.04341 -104.18744 10664 ft 305 kts 220°
2026-04-15 15:34 40.02725 -104.20390 10545 ft 292 kts 220°
2026-04-15 15:34 40.01165 -104.21975 10447 ft 279 kts 220°
2026-04-15 15:34 39.99655 -104.23510 10268 ft 271 kts 221°
2026-04-15 15:35 39.98178 -104.25016 9947 ft 269 kts 221°
2026-04-15 15:35 39.96683 -104.26544 9647 ft 281 kts 221°
2026-04-15 15:35 39.95123 -104.28133 9567 ft 286 kts 221°
2026-04-15 15:35 39.93590 -104.29695 9456 ft 273 kts 220°
2026-04-15 15:36 39.92123 -104.31185 9320 ft 261 kts 221°
2026-04-15 15:36 39.90718 -104.32612 9192 ft 250 kts 221°
2026-04-15 15:36 39.89379 -104.33986 9093 ft 239 kts 223°
2026-04-15 15:36 39.88287 -104.35530 8983 ft 224 kts 241°
2026-04-15 15:37 39.87684 -104.37298 8979 ft 207 kts 257°
2026-04-15 15:37 39.87521 -104.39119 8854 ft 201 kts 273°
2026-04-15 15:37 39.87582 -104.40929 8568 ft 200 kts 272°
2026-04-15 15:37 39.87590 -104.42719 8277 ft 201 kts 270°
2026-04-15 15:38 39.87591 -104.44521 8002 ft 198 kts 271°
2026-04-15 15:38 39.87609 -104.46302 7730 ft 191 kts 271°
2026-04-15 15:38 39.87622 -104.47964 7477 ft 177 kts 271°
2026-04-15 15:38 39.87635 -104.49508 7268 ft 164 kts 271°
2026-04-15 15:39 39.87644 -104.50945 7049 ft 153 kts 270°
2026-04-15 15:39 39.87654 -104.52272 6859 ft 140 kts 271°
2026-04-15 15:39 39.87663 -104.53514 6696 ft 136 kts 271°
2026-04-15 15:39 39.87671 -104.54745 6512 ft 137 kts 271°
2026-04-15 15:40 39.87682 -104.55985 6318 ft 138 kts 270°
2026-04-15 15:40 39.87706 -104.57234 6058 ft 137 kts 270°
2026-04-15 15:40 39.87734 -104.58488 5970 ft 140 kts 269°
2026-04-15 15:40 39.87731 -104.59763 5750 ft 140 kts 266°
2026-04-15 15:41 39.87719 -104.61034 5551 ft 142 kts 271°
2026-04-15 15:41 39.87738 -104.62291 5345 ft 139 kts 270°
2026-04-15 15:41 39.87742 -104.63479 5337 ft 115 kts 271°
2026-04-15 15:41 39.87746 -104.64398 5342 ft 91 kts 270°
2026-04-15 15:42 39.87753 -104.65122 5356 ft 68 kts 270°
2026-04-15 15:42 39.87755 -104.65554 5357 ft 37 kts 270°
2026-04-15 15:42 39.87699 -104.65685 5358 ft 13 kts 198°
2026-04-15 15:42 39.87613 -104.65691 5360 ft 12 kts 181°
2026-04-15 15:43 39.87535 -104.65698 5361 ft 11 kts 188°
2026-04-15 15:43 39.87487 -104.65767 5361 ft 14 kts 254°
2026-04-15 15:43 39.87481 -104.65899 5363 ft 14 kts 270°
2026-04-15 15:43 39.87481 -104.66007 5366 ft 10 kts 270°
2026-04-15 15:44 39.87481 -104.66135 5368 ft 18 kts 271°
2026-04-15 15:44 39.87471 -104.66301 5365 ft 15 kts 232°
2026-04-15 15:44 39.87380 -104.66331 5369 ft 13 kts 180°
2026-04-15 15:44 39.87287 -104.66333 5369 ft 13 kts 180°
2026-04-15 15:45 39.87186 -104.66333 5370 ft 14 kts 180°
2026-04-15 15:45 39.87090 -104.66336 5373 ft 13 kts 183°
2026-04-15 15:45 39.87001 -104.66337 5373 ft 16 kts 180°
2026-04-15 15:45 39.86852 -104.66337 5380 ft 23 kts 181°
2026-04-15 15:46 39.86697 -104.66339 5385 ft 21 kts 181°
2026-04-15 15:46 39.86556 -104.66342 5389 ft 19 kts 179°
2026-04-15 15:46 39.86414 -104.66343 5387 ft 22 kts 181°
2026-04-15 15:46 39.86255 -104.66344 5387 ft 22 kts 180°
2026-04-15 15:47 39.86103 -104.66345 5392 ft 21 kts 181°
2026-04-15 15:47 39.85952 -104.66349 5390 ft 22 kts 180°
2026-04-15 15:47 39.85807 -104.66350 5389 ft 20 kts 183°
2026-04-15 15:47 39.85672 -104.66352 5392 ft 16 kts 180°
2026-04-15 15:48 39.85587 -104.66420 5391 ft 17 kts 257°
2026-04-15 15:48 39.85581 -104.66581 5393 ft 18 kts 274°
2026-04-15 15:48 39.85585 -104.66746 5393 ft 19 kts 270°
2026-04-15 15:48 39.85588 -104.66915 5385 ft 19 kts 272°
2026-04-15 15:49 39.85591 -104.67090 5385 ft 20 kts 269°
2026-04-15 15:49 39.85554 -104.67214 5390 ft 14 kts 192°
2026-04-15 15:49 39.85477 -104.67222 5390 ft 8 kts 186°
2026-04-15 15:49 39.85444 -104.67228 5391 ft 0 kts 187°